| time (UTC) | temp C | wind direction | speed KPH | gust KPH | rain 1hr cm | rain 24hr cm | rain mn cm | humidity % | barometer mb |
| 20260510225720 | 14 | 302 | 14.5 | 25.7 | 0.00 | 0.00 | 0.00 | 30 | 1018.4 |
| 20260510225537 | 13 | 298 | 11.3 | 27.4 | 0.00 | 0.00 | 0.00 | 30 | 1018.4 |
| 20260510225419 | 13 | 275 | 14.5 | 27.4 | 0.00 | 0.00 | 0.00 | 30 | 1018.4 |
| 20260510225257 | 13 | 300 | 17.7 | 27.4 | 0.00 | 0.00 | 0.00 | 30 | 1018.4 |
| 20260510225135 | 14 | 267 | 14.5 | 27.4 | 0.00 | 0.00 | 0.00 | 29 | 1018.4 |
| 20260510224951 | 14 | 294 | 17.7 | 27.4 | 0.00 | 0.00 | 0.00 | 29 | 1018.3 |
| 20260510224812 | 14 | 293 | 17.7 | 33.8 | 0.00 | 0.00 | 0.00 | 29 | 1018.3 |
| 20260510224654 | 14 | 288 | 14.5 | 33.8 | 0.00 | 0.00 | 0.00 | 30 | 1018.3 |
| 20260510224531 | 14 | 296 | 17.7 | 33.8 | 0.00 | 0.00 | 0.00 | 29 | 1018.3 |
| 20260510224408 | 14 | 293 | 17.7 | 37.0 | 0.00 | 0.00 | 0.00 | 29 | 1018.3 |
| 20260510224249 | 14 | 292 | 16.1 | 37.0 | 0.00 | 0.00 | 0.00 | 29 | 1018.3 |
| 20260510224127 | 14 | 299 | 16.1 | 37.0 | 0.00 | 0.00 | 0.00 | 29 | 1018.3 |
| 20260510224005 | 14 | 323 | 9.7 | 37.0 | 0.00 | 0.00 | 0.00 | 30 | 1018.3 |
| 20260510223842 | 14 | 337 | 14.5 | 37.0 | 0.00 | 0.00 | 0.00 | 29 | 1018.3 |
| 20260510223720 | 14 | 270 | 20.9 | 37.0 | 0.00 | 0.00 | 0.00 | 28 | 1018.3 |
| 20260510223601 | 14 | 289 | 20.9 | 37.0 | 0.00 | 0.00 | 0.00 | 29 | 1018.2 |
| 20260510223439 | 14 | 276 | 17.7 | 29.0 | 0.00 | 0.00 | 0.00 | 30 | 1018.2 |
| 20260510223317 | 14 | 302 | 19.3 | 27.4 | 0.00 | 0.00 | 0.00 | 30 | 1018.2 |
| 20260510223154 | 14 | 290 | 14.5 | 27.4 | 0.00 | 0.00 | 0.00 | 31 | 1018.2 |
| 20260510223036 | 14 | 292 | 17.7 | 30.6 | 0.00 | 0.00 | 0.00 | 30 | 1018.2 |
| 20260510222852 | 14 | 291 | 16.1 | 30.6 | 0.00 | 0.00 | 0.00 | 31 | 1018.2 |
| 20260510222735 | 14 | 305 | 14.5 | 30.6 | 0.00 | 0.00 | 0.00 | 31 | 1018.2 |
| 20260510222613 | 14 | 311 | 14.5 | 30.6 | 0.00 | 0.00 | 0.00 | 31 | 1018.3 |
| 20260510222454 | 13 | 301 | 16.1 | 33.8 | 0.00 | 0.00 | 0.00 | 31 | 1018.3 |
| 20260510222331 | 13 | 288 | 17.7 | 33.8 | 0.00 | 0.00 | 0.00 | 31 | 1018.3 |
| 20260510222148 | 14 | 304 | 17.7 | 33.8 | 0.00 | 0.00 | 0.00 | 31 | 1018.3 |
| 20260510222024 | 14 | 267 | 17.7 | 33.8 | 0.00 | 0.00 | 0.00 | 31 | 1018.2 |
| 20260510221902 | 14 | 332 | 20.9 | 33.8 | 0.00 | 0.00 | 0.00 | 31 | 1018.2 |
| 20260510221744 | 14 | 315 | 17.7 | 33.8 | 0.00 | 0.00 | 0.00 | 31 | 1018.2 |
| 20260510221621 | 14 | 350 | 16.1 | 24.1 | 0.00 | 0.00 | 0.00 | 31 | 1018.3 |
| 20260510221458 | 14 | 292 | 11.3 | 24.1 | 0.00 | 0.00 | 0.00 | 32 | 1018.2 |
| 20260510221340 | 14 | 309 | 9.7 | 24.1 | 0.00 | 0.00 | 0.00 | 33 | 1018.2 |
| 20260510221221 | 14 | 316 | 12.9 | 24.1 | 0.00 | 0.00 | 0.00 | 32 | 1018.2 |
| 20260510221102 | 14 | 301 | 11.3 | 24.1 | 0.00 | 0.00 | 0.00 | 34 | 1018.3 |
| 20260510220939 | 13 | 267 | 12.9 | 27.4 | 0.00 | 0.00 | 0.00 | 33 | 1018.2 |
| 20260510220815 | 13 | 298 | 16.1 | 27.4 | 0.00 | 0.00 | 0.00 | 33 | 1018.2 |
| 20260510220635 | 13 | 236 | 11.3 | 27.4 | 0.00 | 0.00 | 0.00 | 34 | 1018.3 |
| 20260510220513 | 13 | 326 | 9.7 | 27.4 | 0.00 | 0.00 | 0.00 | 34 | 1018.2 |
| 20260510220329 | 13 | 288 | 14.5 | 27.4 | 0.00 | 0.00 | 0.00 | 33 | 1018.2 |
| 20260510220151 | 13 | 267 | 12.9 | 25.7 | 0.00 | 0.00 | 0.00 | 33 | 1018.2 |
| 20260510220028 | 13 | 263 | 14.5 | 25.7 | 0.00 | 0.00 | 0.00 | 33 | 1018.1 |
| 20260510215909 | 13 | 280 | 12.9 | 25.7 | 0.00 | 0.00 | 0.00 | 34 | 1018.2 |
| 20260510215725 | 13 | 300 | 14.5 | 25.7 | 0.00 | 0.00 | 0.00 | 33 | 1018.1 |
| 20260510215603 | 13 | 288 | 14.5 | 25.7 | 0.00 | 0.00 | 0.00 | 33 | 1018.1 |
| 20260510215441 | 13 | 310 | 14.5 | 20.9 | 0.00 | 0.00 | 0.00 | 33 | 1018.1 |
| 20260510215324 | 14 | 298 | 11.3 | 25.7 | 0.00 | 0.00 | 0.00 | 34 | 1018.1 |
| 20260510215201 | 13 | 300 | 9.7 | 25.7 | 0.00 | 0.00 | 0.00 | 33 | 1018.1 |
| 20260510215041 | 14 | 266 | 9.7 | 25.7 | 0.00 | 0.00 | 0.00 | 34 | 1018.0 |
| 20260510214918 | 14 | 311 | 11.3 | 25.7 | 0.00 | 0.00 | 0.00 | 33 | 1018.0 |
| 20260510214745 | 14 | 346 | 14.5 | 25.7 | 0.00 | 0.00 | 0.00 | 33 | 1018.0 |
| 20260510214627 | 14 | 298 | 14.5 | 25.7 | 0.00 | 0.00 | 0.00 | 33 | 1018.0 |
| 20260510214442 | 14 | 301 | 12.9 | 20.9 | 0.00 | 0.00 | 0.00 | 33 | 1018.0 |
| 20260510214320 | 14 | 265 | 9.7 | 20.9 | 0.00 | 0.00 | 0.00 | 34 | 1018.0 |
| 20260510214202 | 14 | 290 | 9.7 | 20.9 | 0.00 | 0.00 | 0.00 | 34 | 1017.9 |
| 20260510214040 | 14 | 303 | 4.8 | 20.9 | 0.00 | 0.00 | 0.00 | 34 | 1017.9 |
| 20260510213917 | 14 | 273 | 4.8 | 20.9 | 0.00 | 0.00 | 0.00 | 34 | 1017.9 |
| 20260510213755 | 14 | 329 | 9.7 | 20.9 | 0.00 | 0.00 | 0.00 | 34 | 1017.9 |
| 20260510213637 | 14 | 269 | 14.5 | 20.9 | 0.00 | 0.00 | 0.00 | 33 | 1017.8 |
| 20260510213458 | 14 | 298 | 12.9 | 20.9 | 0.00 | 0.00 | 0.00 | 33 | 1017.8 |
| 20260510213336 | 14 | 282 | 12.9 | 20.9 | 0.00 | 0.00 | 0.00 | 34 | 1017.8 |
| 20260510213214 | 14 | 293 | 14.5 | 20.9 | 0.00 | 0.00 | 0.00 | 33 | 1017.9 |
| 20260510213052 | 14 | 317 | 8.0 | 20.9 | 0.00 | 0.00 | 0.00 | 35 | 1017.8 |
| 20260510212913 | 14 | 294 | 4.8 | 19.3 | 0.00 | 0.00 | 0.00 | 34 | 1017.8 |
| 20260510212728 | 14 | 341 | 8.0 | 25.7 | 0.00 | 0.00 | 0.00 | 34 | 1017.7 |
| 20260510212546 | 14 | 303 | 8.0 | 25.7 | 0.00 | 0.00 | 0.00 | 34 | 1017.7 |
| 20260510212423 | 14 | 312 | 12.9 | 25.7 | 0.00 | 0.00 | 0.00 | 33 | 1017.7 |
| 20260510212306 | 14 | 296 | 11.3 | 25.7 | 0.00 | 0.00 | 0.00 | 34 | 1017.7 |
| 20260510212142 | 14 | 298 | 8.0 | 25.7 | 0.00 | 0.00 | 0.00 | 33 | 1017.7 |
| 20260510212020 | 14 | 231 | 9.7 | 25.7 | 0.00 | 0.00 | 0.00 | 33 | 1017.7 |
| 20260510211858 | 14 | 258 | 9.7 | 25.7 | 0.00 | 0.00 | 0.00 | 34 | 1017.7 |
| 20260510211714 | 14 | 272 | 14.5 | 25.7 | 0.00 | 0.00 | 0.00 | 33 | 1017.7 |
| 20260510211555 | 14 | 289 | 14.5 | 25.7 | 0.00 | 0.00 | 0.00 | 32 | 1017.6 |
| 20260510211432 | 14 | 306 | 16.1 | 25.7 | 0.00 | 0.00 | 0.00 | 32 | 1017.6 |
| 20260510211310 | 14 | 275 | 16.1 | 25.7 | 0.00 | 0.00 | 0.00 | 33 | 1017.6 |
| 20260510211148 | 14 | 297 | 16.1 | 24.1 | 0.00 | 0.00 | 0.00 | 32 | 1017.6 |
| 20260510211031 | 14 | 302 | 12.9 | 24.1 | 0.00 | 0.00 | 0.00 | 33 | 1017.6 |
| 20260510210908 | 14 | 329 | 12.9 | 24.1 | 0.00 | 0.00 | 0.00 | 33 | 1017.6 |
| 20260510210745 | 14 | 320 | 14.5 | 24.1 | 0.00 | 0.00 | 0.00 | 33 | 1017.5 |
| 20260510210622 | 14 | 317 | 14.5 | 30.6 | 0.00 | 0.00 | 0.00 | 33 | 1017.6 |
| 20260510210502 | 14 | 321 | 12.9 | 30.6 | 0.00 | 0.00 | 0.00 | 32 | 1017.5 |
| 20260510210340 | 14 | 246 | 12.9 | 30.6 | 0.00 | 0.00 | 0.00 | 32 | 1017.5 |
| 20260510210217 | 14 | 244 | 16.1 | 30.6 | 0.00 | 0.00 | 0.00 | 32 | 1017.4 |
| 20260510210100 | 14 | 301 | 16.1 | 30.6 | 0.00 | 0.00 | 0.00 | 32 | 1017.5 |
| 20260510205937 | 14 | 273 | 16.1 | 30.6 | 0.00 | 0.00 | 0.00 | 33 | 1017.5 |
| 20260510205818 | 14 | 248 | 14.5 | 20.9 | 0.00 | 0.00 | 0.00 | 33 | 1017.4 |
| 20260510205701 | 14 | 290 | 11.3 | 17.7 | 0.00 | 0.00 | 0.00 | 34 | 1017.5 |
| 20260510205539 | 14 | 302 | 9.7 | 17.7 | 0.00 | 0.00 | 0.00 | 33 | 1017.3 |
| 20260510205355 | 14 | 290 | 9.7 | 17.7 | 0.00 | 0.00 | 0.00 | 33 | 1017.4 |
| 20260510205215 | 14 | 283 | 8.0 | 22.5 | 0.00 | 0.00 | 0.00 | 32 | 1017.4 |
| 20260510205053 | 14 | 290 | 11.3 | 22.5 | 0.00 | 0.00 | 0.00 | 32 | 1017.4 |
| 20260510204935 | 14 | 236 | 9.7 | 22.5 | 0.00 | 0.00 | 0.00 | 34 | 1017.4 |
| 20260510204816 | 14 | 310 | 11.3 | 22.5 | 0.00 | 0.00 | 0.00 | 33 | 1017.4 |
| 20260510204658 | 14 | 331 | 12.9 | 22.5 | 0.00 | 0.00 | 0.00 | 33 | 1017.4 |
| 20260510204538 | 14 | 313 | 14.5 | 22.5 | 0.00 | 0.00 | 0.00 | 33 | 1017.4 |
| 20260510204414 | 14 | 289 | 14.5 | 20.9 | 0.00 | 0.00 | 0.00 | 33 | 1017.4 |
| 20260510204252 | 14 | 267 | 8.0 | 19.3 | 0.00 | 0.00 | 0.00 | 32 | 1017.5 |
| 20260510204108 | 14 | 267 | 6.4 | 19.3 | 0.00 | 0.00 | 0.00 | 33 | 1017.4 |
| 20260510203950 | 14 | 267 | 8.0 | 19.3 | 0.00 | 0.00 | 0.00 | 33 | 1017.4 |
| 20260510203827 | 14 | 277 | 9.7 | 19.3 | 0.00 | 0.00 | 0.00 | 32 | 1017.5 |
| 20260510203705 | 14 | 257 | 11.3 | 19.3 | 0.00 | 0.00 | 0.00 | 32 | 1017.5 |
| 20260510203543 | 14 | 296 | 9.7 | 19.3 | 0.00 | 0.00 | 0.00 | 33 | 1017.6 |
| 20260510203424 | 14 | 333 | 11.3 | 19.3 | 0.00 | 0.00 | 0.00 | 32 | 1017.5 |
| 20260510203302 | 14 | 316 | 12.9 | 20.9 | 0.00 | 0.00 | 0.00 | 32 | 1017.5 |
| 20260510203141 | 14 | 291 | 11.3 | 20.9 | 0.00 | 0.00 | 0.00 | 33 | 1017.5 |
| 20260510203019 | 14 | 273 | 11.3 | 20.9 | 0.00 | 0.00 | 0.00 | 33 | 1017.5 |
| 20260510202859 | 14 | 300 | 9.7 | 20.9 | 0.00 | 0.00 | 0.00 | 34 | 1017.6 |
| 20260510202738 | 14 | 303 | 9.7 | 20.9 | 0.00 | 0.00 | 0.00 | 33 | 1017.5 |
| 20260510202614 | 14 | 283 | 16.1 | 20.9 | 0.00 | 0.00 | 0.00 | 34 | 1017.6 |
| 20260510202436 | 14 | 278 | 11.3 | 19.3 | 0.00 | 0.00 | 0.00 | 36 | 1017.5 |
| 20260510202313 | 14 | 303 | 6.4 | 16.1 | 0.00 | 0.00 | 0.00 | 36 | 1017.5 |
| 20260510202134 | 14 | 53 | 4.8 | 16.1 | 0.00 | 0.00 | 0.00 | 36 | 1017.6 |
| 20260510202017 | 13 | 342 | 4.8 | 16.1 | 0.00 | 0.00 | 0.00 | 35 | 1017.7 |
| 20260510201854 | 13 | 307 | 8.0 | 19.3 | 0.00 | 0.00 | 0.00 | 35 | 1017.7 |
| 20260510201734 | 13 | 271 | 6.4 | 19.3 | 0.00 | 0.00 | 0.00 | 35 | 1017.7 |
| 20260510201616 | 13 | 292 | 4.8 | 19.3 | 0.00 | 0.00 | 0.00 | 34 | 1017.7 |
| 20260510201454 | 13 | 277 | 6.4 | 19.3 | 0.00 | 0.00 | 0.00 | 33 | 1017.7 |
| 20260510201332 | 13 | 268 | 11.3 | 19.3 | 0.00 | 0.00 | 0.00 | 35 | 1017.9 |
| 20260510201208 | 13 | 263 | 12.9 | 19.3 | 0.00 | 0.00 | 0.00 | 34 | 1017.8 |
| 20260510201051 | 13 | 284 | 11.3 | 19.3 | 0.00 | 0.00 | 0.00 | 35 | 1017.9 |
| 20260510200907 | 13 | 312 | 11.3 | 25.7 | 0.00 | 0.00 | 0.00 | 35 | 1017.9 |
| 20260510200744 | 13 | 306 | 9.7 | 25.7 | 0.00 | 0.00 | 0.00 | 35 | 1017.9 |
| 20260510200622 | 13 | 49 | 11.3 | 25.7 | 0.00 | 0.00 | 0.00 | 34 | 1017.8 |
| 20260510200500 | 13 | 292 | 11.3 | 25.7 | 0.00 | 0.00 | 0.00 | 36 | 1017.8 |
| 20260510200342 | 13 | 290 | 11.3 | 25.7 | 0.00 | 0.00 | 0.00 | 35 | 1017.8 |
| 20260510200220 | 13 | 328 | 17.7 | 25.7 | 0.00 | 0.00 | 0.00 | 34 | 1017.8 |
| 20260510200058 | 13 | 284 | 12.9 | 25.7 | 0.00 | 0.00 | 0.00 | 34 | 1017.8 |
| 20260510195935 | 13 | 290 | 12.9 | 22.5 | 0.00 | 0.00 | 0.00 | 34 | 1017.8 |
| 20260510195816 | 13 | 283 | 12.9 | 22.5 | 0.00 | 0.00 | 0.00 | 34 | 1017.9 |
| 20260510195632 | 13 | 284 | 12.9 | 20.9 | 0.00 | 0.00 | 0.00 | 34 | 1017.8 |
| 20260510195511 | 13 | 321 | 9.7 | 19.3 | 0.00 | 0.00 | 0.00 | 34 | 1017.9 |
| 20260510195332 | 13 | 300 | 8.0 | 16.1 | 0.00 | 0.00 | 0.00 | 34 | 1017.9 |
| 20260510195214 | 13 | 319 | 6.4 | 16.1 | 0.00 | 0.00 | 0.00 | 35 | 1017.9 |
| 20260510195052 | 13 | 350 | 8.0 | 17.7 | 0.00 | 0.00 | 0.00 | 35 | 1017.9 |
| 20260510194930 | 13 | 298 | 6.4 | 17.7 | 0.00 | 0.00 | 0.00 | 35 | 1017.9 |
| 20260510194809 | 13 | 309 | 4.8 | 19.3 | 0.00 | 0.00 | 0.00 | 35 | 1017.9 |
| 20260510194636 | 13 | 327 | 4.8 | 19.3 | 0.00 | 0.00 | 0.00 | 34 | 1017.9 |
| 20260510194512 | 13 | 355 | 9.7 | 19.3 | 0.00 | 0.00 | 0.00 | 33 | 1018.0 |
| 20260510194329 | 13 | 310 | 9.7 | 19.3 | 0.00 | 0.00 | 0.00 | 33 | 1018.0 |
| 20260510194206 | 14 | 279 | 9.7 | 19.3 | 0.00 | 0.00 | 0.00 | 33 | 1018.0 |
| 20260510194044 | 14 | 15 | 11.3 | 19.3 | 0.00 | 0.00 | 0.00 | 34 | 1018.1 |
| 20260510193924 | 14 | 360 | 9.7 | 16.1 | 0.00 | 0.00 | 0.00 | 35 | 1018.0 |
| 20260510193802 | 14 | 5 | 4.8 | 11.3 | 0.00 | 0.00 | 0.00 | 35 | 1018.0 |
| 20260510193617 | 13 | 40 | 4.8 | 11.3 | 0.00 | 0.00 | 0.00 | 34 | 1018.0 |
| 20260510193455 | 13 | 304 | 4.8 | 9.7 | 0.00 | 0.00 | 0.00 | 35 | 1018.0 |
| 20260510193322 | 13 | 307 | 6.4 | 14.5 | 0.00 | 0.00 | 0.00 | 33 | 1018.0 |
| 20260510193159 | 13 | 305 | 3.2 | 14.5 | 0.00 | 0.00 | 0.00 | 35 | 1018.0 |
| 20260510193037 | 13 | 298 | 4.8 | 22.5 | 0.00 | 0.00 | 0.00 | 34 | 1018.0 |
| 20260510192915 | 13 | 306 | 4.8 | 22.5 | 0.00 | 0.00 | 0.00 | 34 | 1018.0 |
| 20260510192757 | 13 | 259 | 6.4 | 22.5 | 0.00 | 0.00 | 0.00 | 34 | 1018.1 |
| 20260510192637 | 13 | 294 | 8.0 | 22.5 | 0.00 | 0.00 | 0.00 | 33 | 1018.1 |
| 20260510192514 | 13 | 322 | 9.7 | 22.5 | 0.00 | 0.00 | 0.00 | 33 | 1018.0 |
| 20260510192352 | 13 | 331 | 11.3 | 22.5 | 0.00 | 0.00 | 0.00 | 33 | 1018.0 |
| 20260510192234 | 13 | 294 | 14.5 | 22.5 | 0.00 | 0.00 | 0.00 | 33 | 1018.0 |
| 20260510192112 | 13 | 290 | 11.3 | 22.5 | 0.00 | 0.00 | 0.00 | 33 | 1018.0 |
| 20260510191949 | 13 | 284 | 9.7 | 22.5 | 0.00 | 0.00 | 0.00 | 34 | 1018.0 |
| 20260510191831 | 13 | 331 | 11.3 | 22.5 | 0.00 | 0.00 | 0.00 | 33 | 1018.0 |
| 20260510191709 | 13 | 307 | 12.9 | 22.5 | 0.00 | 0.00 | 0.00 | 33 | 1018.0 |
| 20260510191550 | 13 | 273 | 14.5 | 22.5 | 0.00 | 0.00 | 0.00 | 33 | 1017.9 |
| 20260510191407 | 13 | 296 | 12.9 | 20.9 | 0.00 | 0.00 | 0.00 | 33 | 1017.9 |
| 20260510191245 | 13 | 289 | 12.9 | 20.9 | 0.00 | 0.00 | 0.00 | 33 | 1017.9 |
| 20260510191123 | 14 | 289 | 11.3 | 20.9 | 0.00 | 0.00 | 0.00 | 34 | 1018.0 |
| 20260510191004 | 13 | 298 | 9.7 | 20.9 | 0.00 | 0.00 | 0.00 | 34 | 1018.0 |
| 20260510190842 | 13 | 298 | 12.9 | 20.9 | 0.00 | 0.00 | 0.00 | 34 | 1018.0 |
| 20260510190719 | 13 | 300 | 16.1 | 20.9 | 0.00 | 0.00 | 0.00 | 34 | 1018.0 |
| 20260510190557 | 13 | 273 | 11.3 | 17.7 | 0.00 | 0.00 | 0.00 | 35 | 1018.0 |
| 20260510190439 | 13 | 317 | 8.0 | 17.7 | 0.00 | 0.00 | 0.00 | 34 | 1017.9 |
| 20260510190315 | 13 | 309 | 6.4 | 16.1 | 0.00 | 0.00 | 0.00 | 35 | 1018.0 |
| 20260510190153 | 13 | 314 | 6.4 | 17.7 | 0.00 | 0.00 | 0.00 | 34 | 1018.0 |
| 20260510190031 | 13 | 262 | 9.7 | 17.7 | 0.00 | 0.00 | 0.00 | 33 | 1018.1 |
| 20260510185909 | 13 | 295 | 11.3 | 17.7 | 0.00 | 0.00 | 0.00 | 34 | 1018.1 |
| 20260510185751 | 13 | 327 | 9.7 | 17.7 | 0.00 | 0.00 | 0.00 | 33 | 1018.1 |
| 20260510185626 | 13 | 302 | 11.3 | 22.5 | 0.00 | 0.00 | 0.00 | 33 | 1018.1 |
| 20260510185504 | 13 | 242 | 12.9 | 22.5 | 0.00 | 0.00 | 0.00 | 32 | 1018.2 |
| 20260510185321 | 13 | 240 | 9.7 | 22.5 | 0.00 | 0.00 | 0.00 | 32 | 1018.2 |
| 20260510185202 | 13 | 261 | 8.0 | 22.5 | 0.00 | 0.00 | 0.00 | 33 | 1018.2 |
| 20260510185039 | 13 | 276 | 11.3 | 22.5 | 0.00 | 0.00 | 0.00 | 33 | 1018.2 |
| 20260510184917 | 13 | 287 | 14.5 | 22.5 | 0.00 | 0.00 | 0.00 | 33 | 1018.2 |
| 20260510184755 | 13 | 290 | 9.7 | 20.9 | 0.00 | 0.00 | 0.00 | 33 | 1018.1 |
| 20260510184637 | 13 | 280 | 9.7 | 20.9 | 0.00 | 0.00 | 0.00 | 33 | 1018.2 |
| 20260510184513 | 13 | 5 | 11.3 | 25.7 | 0.00 | 0.03 | 0.00 | 32 | 1018.1 |
| 20260510184353 | 13 | 248 | 12.9 | 25.7 | 0.00 | 0.03 | 0.00 | 33 | 1018.1 |
| 20260510184211 | 13 | 264 | 11.3 | 25.7 | 0.00 | 0.03 | 0.00 | 32 | 1018.1 |
| 20260510184027 | 13 | 233 | 11.3 | 29.0 | 0.00 | 0.03 | 0.00 | 32 | 1018.1 |
| 20260510183908 | 13 | 283 | 14.5 | 30.6 | 0.00 | 0.03 | 0.00 | 32 | 1018.0 |
| 20260510183745 | 13 | 280 | 12.9 | 30.6 | 0.00 | 0.03 | 0.00 | 31 | 1018.0 |
| 20260510183622 | 13 | 280 | 14.5 | 30.6 | 0.00 | 0.03 | 0.00 | 31 | 1018.0 |
| 20260510183439 | 13 | 279 | 12.9 | 30.6 | 0.00 | 0.03 | 0.00 | 32 | 1018.0 |
| 20260510183320 | 13 | 290 | 16.1 | 30.6 | 0.00 | 0.03 | 0.00 | 32 | 1018.0 |
| 20260510183157 | 13 | 282 | 19.3 | 30.6 | 0.00 | 0.03 | 0.00 | 32 | 1017.9 |
| 20260510183035 | 13 | 254 | 12.9 | 22.5 | 0.00 | 0.03 | 0.00 | 33 | 1017.9 |
| 20260510182912 | 13 | 295 | 9.7 | 25.7 | 0.00 | 0.03 | 0.00 | 32 | 1017.9 |
| 20260510182753 | 13 | 300 | 6.4 | 25.7 | 0.00 | 0.03 | 0.00 | 31 | 1017.9 |
| 20260510182632 | 13 | 277 | 8.0 | 25.7 | 0.00 | 0.03 | 0.00 | 31 | 1018.0 |
| 20260510182509 | 13 | 252 | 12.9 | 25.7 | 0.00 | 0.03 | 0.00 | 31 | 1018.0 |
| 20260510182326 | 13 | 227 | 14.5 | 25.7 | 0.00 | 0.03 | 0.00 | 32 | 1018.0 |
| 20260510182203 | 13 | 293 | 14.5 | 25.7 | 0.00 | 0.03 | 0.00 | 33 | 1018.0 |
| 20260510182023 | 13 | 292 | 11.3 | 19.3 | 0.00 | 0.03 | 0.00 | 33 | 1018.0 |
| 20260510181901 | 13 | 270 | 9.7 | 22.5 | 0.00 | 0.03 | 0.00 | 34 | 1018.0 |
| 20260510181739 | 13 | 291 | 9.7 | 22.5 | 0.00 | 0.03 | 0.00 | 34 | 1017.9 |
| 20260510181615 | 13 | 342 | 8.0 | 22.5 | 0.00 | 0.03 | 0.00 | 35 | 1017.9 |
| 20260510181457 | 13 | 284 | 11.3 | 22.5 | 0.00 | 0.03 | 0.00 | 32 | 1017.9 |
| 20260510181334 | 13 | 292 | 12.9 | 22.5 | 0.00 | 0.03 | 0.00 | 32 | 1017.8 |
| 20260510181211 | 13 | 325 | 14.5 | 22.5 | 0.00 | 0.03 | 0.00 | 31 | 1017.8 |
| 20260510181049 | 13 | 311 | 12.9 | 22.5 | 0.00 | 0.03 | 0.00 | 33 | 1017.9 |
| 20260510180931 | 13 | 360 | 14.5 | 22.5 | 0.00 | 0.03 | 0.00 | 33 | 1017.8 |
| 20260510180809 | 13 | 327 | 12.9 | 24.1 | 0.00 | 0.03 | 0.00 | 32 | 1017.9 |
| 20260510180646 | 13 | 282 | 8.0 | 24.1 | 0.00 | 0.03 | 0.00 | 32 | 1017.8 |
| 20260510180524 | 13 | 310 | 6.4 | 24.1 | 0.00 | 0.03 | 0.00 | 32 | 1017.7 |
| 20260510180340 | 13 | 290 | 8.0 | 24.1 | 0.00 | 0.03 | 0.00 | 32 | 1017.8 |
| 20260510180200 | 13 | 230 | 12.9 | 24.1 | 0.00 | 0.03 | 0.00 | 33 | 1017.8 |
| 20260510180016 | 13 | 244 | 14.5 | 24.1 | 0.00 | 0.03 | 0.00 | 32 | 1017.8 |
| 20260510175859 | 13 | 254 | 12.9 | 24.1 | 0.00 | 0.03 | 0.00 | 33 | 1017.8 |
| 20260510175736 | 13 | 306 | 12.9 | 24.1 | 0.00 | 0.03 | 0.00 | 32 | 1017.9 |
| 20260510175602 | 13 | 295 | 9.7 | 24.1 | 0.00 | 0.03 | 0.00 | 32 | 1017.8 |
| 20260510175418 | 13 | 281 | 12.9 | 24.1 | 0.00 | 0.03 | 0.00 | 30 | 1017.7 |
| 20260510175256 | 13 | 290 | 16.1 | 24.1 | 0.00 | 0.03 | 0.00 | 31 | 1017.7 |
| 20260510175112 | 13 | 298 | 14.5 | 22.5 | 0.00 | 0.03 | 0.00 | 31 | 1017.7 |
| 20260510174932 | 13 | 283 | 8.0 | 20.9 | 0.00 | 0.03 | 0.00 | 31 | 1017.7 |
| 20260510174809 | 13 | 229 | 4.8 | 20.9 | 0.00 | 0.03 | 0.00 | 31 | 1017.5 |
| 20260510174625 | 13 | 287 | 9.7 | 20.9 | 0.00 | 0.03 | 0.00 | 32 | 1017.7 |
| 20260510174440 | 13 | 300 | 11.3 | 20.9 | 0.00 | 0.03 | 0.00 | 30 | 1017.7 |
| 20260510174301 | 13 | 290 | 12.9 | 20.9 | 0.00 | 0.03 | 0.00 | 30 | 1017.7 |
| 20260510174137 | 13 | 257 | 11.3 | 17.7 | 0.00 | 0.03 | 0.00 | 31 | 1017.7 |
| 20260510174016 | 13 | 279 | 11.3 | 17.7 | 0.00 | 0.03 | 0.00 | 30 | 1017.7 |
| 20260510173858 | 13 | 293 | 9.7 | 17.7 | 0.00 | 0.03 | 0.00 | 31 | 1017.6 |
| 20260510173740 | 13 | 297 | 9.7 | 17.7 | 0.00 | 0.03 | 0.00 | 30 | 1017.6 |
| 20260510173621 | 13 | 298 | 11.3 | 16.1 | 0.00 | 0.03 | 0.00 | 31 | 1017.6 |
| 20260510173438 | 13 | 287 | 8.0 | 22.5 | 0.00 | 0.03 | 0.00 | 32 | 1017.7 |
| 20260510173320 | 13 | 282 | 9.7 | 22.5 | 0.00 | 0.03 | 0.00 | 31 | 1017.7 |
| 20260510173158 | 13 | 302 | 8.0 | 24.1 | 0.00 | 0.03 | 0.00 | 31 | 1017.7 |
| 20260510173019 | 13 | 344 | 9.7 | 24.1 | 0.00 | 0.03 | 0.00 | 30 | 1017.7 |
| 20260510172858 | 13 | 286 | 11.3 | 24.1 | 0.00 | 0.03 | 0.00 | 32 | 1017.7 |
| 20260510172740 | 13 | 311 | 12.9 | 24.1 | 0.00 | 0.03 | 0.00 | 30 | 1017.7 |
| 20260510172617 | 13 | 348 | 11.3 | 24.1 | 0.00 | 0.03 | 0.00 | 31 | 1017.7 |
| 20260510172457 | 13 | 338 | 11.3 | 24.1 | 0.00 | 0.03 | 0.00 | 32 | 1017.7 |
| 20260510172314 | 13 | 332 | 8.0 | 22.5 | 0.00 | 0.03 | 0.00 | 32 | 1017.7 |
| 20260510172156 | 13 | 265 | 6.4 | 22.5 | 0.00 | 0.03 | 0.00 | 32 | 1017.7 |
| 20260510172032 | 13 | 340 | 9.7 | 22.5 | 0.00 | 0.03 | 0.00 | 32 | 1017.7 |
| 20260510171910 | 13 | 267 | 11.3 | 32.2 | 0.00 | 0.03 | 0.00 | 33 | 1017.7 |
| 20260510171752 | 13 | 296 | 12.9 | 32.2 | 0.00 | 0.03 | 0.00 | 31 | 1017.7 |
| 20260510171608 | 13 | 279 | 14.5 | 32.2 | 0.00 | 0.03 | 0.00 | 33 | 1017.8 |
| 20260510171448 | 13 | 336 | 11.3 | 32.2 | 0.00 | 0.03 | 0.00 | 32 | 1017.7 |
| 20260510171305 | 13 | 313 | 12.9 | 32.2 | 0.00 | 0.03 | 0.00 | 31 | 1017.7 |
| 20260510171147 | 13 | 295 | 14.5 | 32.2 | 0.00 | 0.03 | 0.00 | 33 | 1017.7 |
| 20260510171025 | 13 | 244 | 8.0 | 24.1 | 0.00 | 0.03 | 0.00 | 33 | 1017.7 |
| 20260510170903 | 12 | 275 | 3.2 | 29.0 | 0.00 | 0.03 | 0.00 | 32 | 1017.7 |
| 20260510170741 | 12 | 232 | 6.4 | 32.2 | 0.00 | 0.03 | 0.00 | 33 | 1017.7 |
| 20260510170623 | 12 | 234 | 9.7 | 32.2 | 0.00 | 0.03 | 0.00 | 34 | 1017.8 |
| 20260510170504 | 12 | 293 | 12.9 | 32.2 | 0.00 | 0.03 | 0.00 | 33 | 1017.8 |
| 20260510170342 | 12 | 302 | 12.9 | 32.2 | 0.00 | 0.03 | 0.00 | 33 | 1017.8 |
| 20260510170218 | 12 | 251 | 11.3 | 32.2 | 0.00 | 0.03 | 0.00 | 34 | 1017.8 |
| 20260510165942 | 12 | 307 | 9.7 | 22.5 | 0.00 | 0.03 | 0.00 | 36 | 1017.9 |
| 20260510165820 | 12 | 296 | 8.0 | 16.1 | 0.00 | 0.03 | 0.00 | 36 | 1017.9 |
| 20260510165657 | 12 | 311 | 9.7 | 16.1 | 0.00 | 0.03 | 0.00 | 36 | 1017.8 |
| 20260510165538 | 12 | 35 | 9.7 | 16.1 | 0.00 | 0.03 | 0.00 | 36 | 1017.8 |
| 20260510165420 | 12 | 342 | 11.3 | 17.7 | 0.00 | 0.03 | 0.00 | 36 | 1017.8 |
| 20260510165258 | 12 | 309 | 9.7 | 19.3 | 0.00 | 0.03 | 0.00 | 35 | 1017.8 |
| 20260510165136 | 12 | 327 | 8.0 | 19.3 | 0.00 | 0.03 | 0.00 | 35 | 1017.8 |
| 20260510165013 | 12 | 316 | 6.4 | 19.3 | 0.00 | 0.03 | 0.00 | 34 | 1017.9 |
| 20260510164839 | 12 | 342 | 6.4 | 19.3 | 0.00 | 0.03 | 0.00 | 35 | 1017.9 |
| 20260510164716 | 12 | 355 | 8.0 | 19.3 | 0.00 | 0.03 | 0.00 | 36 | 1017.9 |
| 20260510164559 | 12 | 300 | 11.3 | 19.3 | 0.00 | 0.03 | 0.00 | 34 | 1018.0 |
| 20260510164440 | 12 | 327 | 14.5 | 19.3 | 0.00 | 0.03 | 0.00 | 36 | 1018.0 |
| 20260510164321 | 12 | 306 | 14.5 | 20.9 | 0.00 | 0.03 | 0.00 | 34 | 1017.9 |
| 20260510164158 | 12 | 309 | 9.7 | 20.9 | 0.00 | 0.03 | 0.00 | 35 | 1017.9 |
| 20260510164041 | 12 | 299 | 11.3 | 20.9 | 0.00 | 0.03 | 0.00 | 35 | 1018.0 |
| 20260510163917 | 12 | 294 | 9.7 | 22.5 | 0.00 | 0.03 | 0.00 | 36 | 1017.9 |
| 20260510163736 | 12 | 343 | 8.0 | 22.5 | 0.00 | 0.03 | 0.00 | 36 | 1017.8 |
| 20260510163555 | 12 | 324 | 12.9 | 22.5 | 0.00 | 0.03 | 0.00 | 36 | 1017.8 |
| 20260510163433 | 12 | 347 | 14.5 | 22.5 | 0.00 | 0.03 | 0.00 | 35 | 1017.8 |
| 20260510163313 | 12 | 329 | 14.5 | 22.5 | 0.00 | 0.03 | 0.00 | 35 | 1017.8 |
| 20260510163151 | 12 | 298 | 12.9 | 22.5 | 0.00 | 0.03 | 0.00 | 35 | 1017.8 |
| 20260510163032 | 12 | 298 | 11.3 | 20.9 | 0.00 | 0.03 | 0.00 | 36 | 1017.8 |
| 20260510162909 | 12 | 313 | 11.3 | 20.9 | 0.00 | 0.03 | 0.00 | 36 | 1017.8 |
| 20260510162747 | 12 | 311 | 11.3 | 19.3 | 0.00 | 0.03 | 0.00 | 37 | 1017.8 |
| 20260510162625 | 12 | 336 | 9.7 | 19.3 | 0.00 | 0.03 | 0.00 | 35 | 1017.7 |
| 20260510162506 | 12 | 325 | 8.0 | 20.9 | 0.00 | 0.03 | 0.00 | 36 | 1017.7 |
| 20260510162344 | 12 | 297 | 8.0 | 25.7 | 0.00 | 0.03 | 0.00 | 36 | 1017.8 |
| 20260510162205 | 12 | 350 | 9.7 | 25.7 | 0.00 | 0.03 | 0.00 | 36 | 1017.9 |
| 20260510162043 | 12 | 329 | 9.7 | 25.7 | 0.00 | 0.03 | 0.00 | 37 | 1017.8 |
| 20260510161921 | 12 | 290 | 9.7 | 25.7 | 0.00 | 0.03 | 0.00 | 38 | 1017.8 |
| 20260510161803 | 12 | 342 | 14.5 | 25.7 | 0.00 | 0.03 | 0.00 | 37 | 1017.8 |
| 20260510161641 | 12 | 305 | 14.5 | 25.7 | 0.00 | 0.03 | 0.00 | 36 | 1017.8 |
| 20260510161519 | 12 | 290 | 9.7 | 17.7 | 0.00 | 0.03 | 0.00 | 38 | 1017.7 |
| 20260510161356 | 12 | 288 | 9.7 | 16.1 | 0.00 | 0.03 | 0.00 | 37 | 1017.7 |
| 20260510161223 | 12 | 331 | 8.0 | 16.1 | 0.00 | 0.03 | 0.00 | 38 | 1017.7 |
| 20260510161100 | 12 | 251 | 4.8 | 22.5 | 0.00 | 0.03 | 0.00 | 39 | 1017.8 |
| 20260510160941 | 12 | 306 | 6.4 | 22.5 | 0.00 | 0.03 | 0.00 | 41 | 1017.8 |
| 20260510160823 | 12 | 300 | 4.8 | 22.5 | 0.00 | 0.03 | 0.00 | 40 | 1017.8 |
| 20260510160705 | 11 | 22 | 3.2 | 22.5 | 0.00 | 0.03 | 0.00 | 39 | 1017.7 |
| 20260510160543 | 11 | 26 | 8.0 | 22.5 | 0.00 | 0.03 | 0.00 | 39 | 1017.8 |
| 20260510160421 | 11 | 291 | 14.5 | 22.5 | 0.00 | 0.03 | 0.00 | 37 | 1017.7 |
| 20260510160257 | 11 | 303 | 12.9 | 22.5 | 0.00 | 0.03 | 0.00 | 37 | 1017.7 |
| 20260510160140 | 12 | 331 | 11.3 | 22.5 | 0.00 | 0.03 | 0.00 | 40 | 1017.7 |
| 20260510160017 | 11 | 355 | 6.4 | 22.5 | 0.00 | 0.03 | 0.00 | 40 | 1017.7 |
| 20260510155855 | 11 | 10 | 8.0 | 24.1 | 0.00 | 0.03 | 0.00 | 39 | 1017.7 |
| 20260510155734 | 11 | 66 | 12.9 | 24.1 | 0.00 | 0.03 | 0.00 | 39 | 1017.7 |
| 20260510155550 | 12 | 18 | 12.9 | 24.1 | 0.00 | 0.03 | 0.00 | 38 | 1017.7 |
| 20260510155431 | 12 | 16 | 11.3 | 24.1 | 0.00 | 0.03 | 0.00 | 39 | 1017.7 |
| 20260510155313 | 11 | 355 | 8.0 | 24.1 | 0.00 | 0.03 | 0.00 | 39 | 1017.8 |
| 20260510155151 | 11 | 293 | 11.3 | 24.1 | 0.00 | 0.03 | 0.00 | 38 | 1017.8 |
| 20260510155029 | 11 | 22 | 12.9 | 20.9 | 0.00 | 0.03 | 0.00 | 37 | 1017.8 |
| 20260510154849 | 11 | 319 | 8.0 | 20.9 | 0.00 | 0.03 | 0.00 | 38 | 1017.7 |
| 20260510154727 | 11 | 308 | 11.3 | 20.9 | 0.00 | 0.03 | 0.00 | 38 | 1017.7 |
| 20260510154549 | 11 | 307 | 8.0 | 20.9 | 0.00 | 0.03 | 0.00 | 39 | 1017.7 |
| 20260510154424 | 11 | 344 | 12.9 | 20.9 | 0.00 | 0.03 | 0.00 | 37 | 1017.7 |
| 20260510154306 | 11 | 326 | 11.3 | 20.9 | 0.00 | 0.03 | 0.00 | 40 | 1017.7 |
| 20260510154147 | 11 | 360 | 6.4 | 19.3 | 0.00 | 0.03 | 0.00 | 40 | 1017.7 |
| 20260510154024 | 11 | 331 | 8.0 | 19.3 | 0.00 | 0.03 | 0.00 | 39 | 1017.7 |
| 20260510153901 | 11 | 305 | 11.3 | 19.3 | 0.00 | 0.03 | 0.00 | 39 | 1017.7 |
| 20260510153738 | 11 | 11 | 9.7 | 19.3 | 0.00 | 0.03 | 0.00 | 40 | 1017.7 |
| 20260510153620 | 11 | 278 | 9.7 | 16.1 | 0.00 | 0.03 | 0.00 | 39 | 1017.6 |
| 20260510153458 | 11 | 263 | 8.0 | 24.1 | 0.00 | 0.03 | 0.00 | 41 | 1017.6 |
| 20260510153334 | 11 | 217 | 6.4 | 24.1 | 0.00 | 0.03 | 0.00 | 41 | 1017.6 |
| 20260510153212 | 11 | 337 | 6.4 | 24.1 | 0.00 | 0.03 | 0.00 | 41 | 1017.6 |
| 20260510153053 | 11 | 311 | 8.0 | 24.1 | 0.00 | 0.03 | 0.00 | 40 | 1017.6 |
| 20260510152932 | 11 | 327 | 9.7 | 24.1 | 0.00 | 0.03 | 0.00 | 40 | 1017.6 |
| 20260510152809 | 11 | 302 | 12.9 | 24.1 | 0.00 | 0.03 | 0.00 | 40 | 1017.5 |
| 20260510152646 | 11 | 242 | 11.3 | 22.5 | 0.00 | 0.03 | 0.00 | 40 | 1017.5 |
| 20260510152528 | 11 | 250 | 11.3 | 22.5 | 0.00 | 0.03 | 0.00 | 42 | 1017.6 |
| 20260510152410 | 11 | 325 | 8.0 | 20.9 | 0.00 | 0.03 | 0.00 | 43 | 1017.5 |
| 20260510152248 | 11 | 35 | 8.0 | 25.7 | 0.00 | 0.03 | 0.00 | 41 | 1017.5 |
| 20260510152125 | 11 | 343 | 11.3 | 25.7 | 0.00 | 0.03 | 0.00 | 42 | 1017.5 |
| 20260510152003 | 11 | 317 | 8.0 | 25.7 | 0.00 | 0.03 | 0.00 | 42 | 1017.4 |
| 20260510151823 | 11 | 338 | 8.0 | 25.7 | 0.00 | 0.03 | 0.00 | 41 | 1017.4 |
| 20260510151703 | 11 | 310 | 12.9 | 25.7 | 0.00 | 0.03 | 0.00 | 41 | 1017.4 |
| 20260510151540 | 11 | 315 | 14.5 | 25.7 | 0.00 | 0.03 | 0.00 | 41 | 1017.4 |
| 20260510151417 | 11 | 288 | 9.7 | 16.1 | 0.00 | 0.03 | 0.00 | 41 | 1017.4 |
| 20260510151238 | 11 | 330 | 11.3 | 16.1 | 0.00 | 0.03 | 0.00 | 41 | 1017.4 |
| 20260510151120 | 11 | 341 | 6.4 | 16.1 | 0.00 | 0.03 | 0.00 | 43 | 1017.4 |
| 20260510150956 | 11 | 19 | 8.0 | 16.1 | 0.00 | 0.03 | 0.00 | 43 | 1017.4 |
| 20260510150813 | 11 | 304 | 11.3 | 16.1 | 0.00 | 0.03 | 0.00 | 43 | 1017.4 |
| 20260510150633 | 11 | 298 | 8.0 | 16.1 | 0.00 | 0.03 | 0.00 | 43 | 1017.4 |
| 20260510150511 | 10 | 301 | 3.2 | 17.7 | 0.00 | 0.03 | 0.00 | 41 | 1017.4 |
| 20260510150349 | 11 | 305 | 8.0 | 17.7 | 0.00 | 0.03 | 0.00 | 42 | 1017.4 |
| 20260510150231 | 11 | 306 | 9.7 | 17.7 | 0.00 | 0.03 | 0.00 | 43 | 1017.4 |
| 20260510150109 | 10 | 334 | 9.7 | 19.3 | 0.00 | 0.03 | 0.00 | 45 | 1017.4 |
| 20260510145951 | 10 | 339 | 8.0 | 19.3 | 0.00 | 0.03 | 0.00 | 46 | 1017.4 |
| 20260510145829 | 10 | 36 | 9.7 | 19.3 | 0.00 | 0.03 | 0.00 | 45 | 1017.3 |
| 20260510145706 | 10 | 22 | 11.3 | 19.3 | 0.00 | 0.03 | 0.00 | 44 | 1017.3 |
| 20260510145526 | 10 | 343 | 9.7 | 19.3 | 0.00 | 0.03 | 0.00 | 43 | 1017.3 |
| 20260510145408 | 10 | 323 | 9.7 | 19.3 | 0.00 | 0.03 | 0.00 | 43 | 1017.3 |
| 20260510145245 | 10 | 296 | 12.9 | 20.9 | 0.00 | 0.03 | 0.00 | 44 | 1017.3 |
| 20260510145125 | 10 | 298 | 12.9 | 20.9 | 0.00 | 0.03 | 0.00 | 43 | 1017.3 |
| 20260510145002 | 10 | 279 | 12.9 | 20.9 | 0.00 | 0.03 | 0.00 | 43 | 1017.3 |
| 20260510144843 | 10 | 346 | 12.9 | 20.9 | 0.00 | 0.03 | 0.00 | 43 | 1017.3 |
| 20260510144721 | 10 | 331 | 12.9 | 20.9 | 0.00 | 0.03 | 0.00 | 43 | 1017.2 |
| 20260510144600 | 10 | 277 | 14.5 | 20.9 | 0.00 | 0.03 | 0.00 | 42 | 1017.2 |
| 20260510144438 | 10 | 306 | 12.9 | 20.9 | 0.00 | 0.03 | 0.00 | 42 | 1017.2 |
| 20260510144302 | 10 | 302 | 9.7 | 19.3 | 0.00 | 0.03 | 0.00 | 44 | 1017.2 |
| 20260510144139 | 10 | 300 | 8.0 | 19.3 | 0.00 | 0.03 | 0.00 | 45 | 1017.1 |
| 20260510144017 | 10 | 346 | 11.3 | 19.3 | 0.00 | 0.03 | 0.00 | 45 | 1017.1 |
| 20260510143833 | 10 | 283 | 8.0 | 19.3 | 0.00 | 0.03 | 0.00 | 47 | 1017.1 |
| 20260510143711 | 10 | 11 | 6.4 | 17.7 | 0.00 | 0.03 | 0.00 | 46 | 1017.0 |
| 20260510143553 | 10 | 348 | 6.4 | 17.7 | 0.00 | 0.03 | 0.00 | 47 | 1017.0 |
| 20260510143430 | 10 | 355 | 6.4 | 17.7 | 0.00 | 0.03 | 0.00 | 46 | 1017.0 |
| 20260510143248 | 10 | 292 | 9.7 | 17.7 | 0.00 | 0.03 | 0.00 | 46 | 1017.0 |
| 20260510143131 | 10 | 340 | 8.0 | 17.7 | 0.00 | 0.03 | 0.00 | 48 | 1017.0 |
| 20260510143012 | 10 | 306 | 4.8 | 12.9 | 0.00 | 0.03 | 0.00 | 48 | 1017.0 |
| 20260510142850 | 10 | 14 | 4.8 | 12.9 | 0.00 | 0.03 | 0.00 | 46 | 1017.0 |
| 20260510142731 | 10 | 315 | 9.7 | 12.9 | 0.00 | 0.03 | 0.00 | 46 | 1017.0 |
| 20260510142614 | 10 | 302 | 9.7 | 12.9 | 0.00 | 0.03 | 0.00 | 47 | 1016.9 |
| 20260510142440 | 10 | 288 | 4.8 | 11.3 | 0.00 | 0.03 | 0.00 | 47 | 1016.9 |
| 20260510142317 | 10 | 342 | 3.2 | 12.9 | 0.00 | 0.03 | 0.00 | 49 | 1016.9 |
| 20260510142155 | 10 | 360 | 1.6 | 12.9 | 0.00 | 0.03 | 0.00 | 49 | 1016.9 |
| 20260510142037 | 10 | 332 | 3.2 | 14.5 | 0.00 | 0.03 | 0.00 | 48 | 1016.9 |
| 20260510141857 | 10 | 286 | 4.8 | 14.5 | 0.00 | 0.03 | 0.00 | 47 | 1016.9 |
| 20260510141714 | 10 | 284 | 4.8 | 16.1 | 0.00 | 0.03 | 0.00 | 48 | 1016.9 |
| 20260510141552 | 10 | 298 | 6.4 | 16.1 | 0.00 | 0.03 | 0.00 | 47 | 1016.9 |
| 20260510141430 | 10 | 288 | 8.0 | 16.1 | 0.00 | 0.03 | 0.00 | 48 | 1017.0 |
| 20260510141307 | 10 | 300 | 9.7 | 16.1 | 0.00 | 0.03 | 0.00 | 49 | 1016.9 |
| 20260510141148 | 10 | 332 | 9.7 | 16.1 | 0.00 | 0.03 | 0.00 | 49 | 1016.9 |
| 20260510141026 | 10 | 341 | 8.0 | 16.1 | 0.00 | 0.03 | 0.00 | 50 | 1016.9 |
| 20260510140904 | 10 | 321 | 6.4 | 12.9 | 0.00 | 0.03 | 0.00 | 49 | 1016.8 |
| 20260510140742 | 10 | 315 | 8.0 | 12.9 | 0.00 | 0.03 | 0.00 | 49 | 1016.9 |
| 20260510140622 | 10 | 348 | 4.8 | 14.5 | 0.00 | 0.03 | 0.00 | 50 | 1016.8 |
| 20260510140500 | 10 | 310 | 3.2 | 14.5 | 0.00 | 0.03 | 0.00 | 51 | 1016.8 |
| 20260510140316 | 10 | 338 | 3.2 | 14.5 | 0.00 | 0.03 | 0.00 | 51 | 1016.8 |
| 20260510140153 | 9 | 288 | 6.4 | 14.5 | 0.00 | 0.03 | 0.00 | 49 | 1016.8 |
| 20260510140036 | 9 | 288 | 6.4 | 14.5 | 0.00 | 0.03 | 0.00 | 50 | 1016.8 |
| 20260510135913 | 9 | 298 | 6.4 | 14.5 | 0.00 | 0.03 | 0.00 | 50 | 1016.9 |
| 20260510135751 | 9 | 340 | 4.8 | 16.1 | 0.00 | 0.03 | 0.00 | 50 | 1016.8 |
| 20260510135630 | 9 | 325 | 6.4 | 16.1 | 0.00 | 0.03 | 0.00 | 50 | 1016.8 |
| 20260510135507 | 9 | 298 | 8.0 | 17.7 | 0.00 | 0.03 | 0.00 | 50 | 1016.8 |
| 20260510135348 | 9 | 313 | 8.0 | 17.7 | 0.00 | 0.03 | 0.00 | 51 | 1016.9 |
| 20260510135205 | 9 | 317 | 6.4 | 17.7 | 0.00 | 0.03 | 0.00 | 51 | 1016.9 |
| 20260510135043 | 9 | 304 | 11.3 | 17.7 | 0.00 | 0.03 | 0.00 | 49 | 1016.8 |
| 20260510134859 | 9 | 304 | 11.3 | 17.7 | 0.00 | 0.03 | 0.00 | 50 | 1016.7 |
| 20260510134739 | 9 | 259 | 8.0 | 17.7 | 0.00 | 0.03 | 0.00 | 51 | 1016.8 |
| 20260510134556 | 9 | 317 | 6.4 | 14.5 | 0.00 | 0.03 | 0.00 | 51 | 1016.7 |
| 20260510134433 | 9 | 311 | 9.7 | 14.5 | 0.00 | 0.03 | 0.00 | 51 | 1016.7 |
| 20260510134315 | 9 | 288 | 9.7 | 14.5 | 0.00 | 0.03 | 0.00 | 51 | 1016.7 |
| 20260510134157 | 9 | 293 | 6.4 | 11.3 | 0.00 | 0.03 | 0.00 | 53 | 1016.7 |
| 20260510134014 | 9 | 239 | 3.2 | 8.0 | 0.00 | 0.03 | 0.00 | 55 | 1016.6 |
| 20260510133851 | 9 | 327 | 4.8 | 8.0 | 0.00 | 0.03 | 0.00 | 55 | 1016.6 |
| 20260510133708 | 9 | 355 | 4.8 | 9.7 | 0.00 | 0.03 | 0.00 | 54 | 1016.7 |
| 20260510133534 | 9 | 318 | 6.4 | 9.7 | 0.00 | 0.03 | 0.00 | 55 | 1016.7 |
| 20260510133412 | 8 | 5 | 4.8 | 11.3 | 0.00 | 0.03 | 0.00 | 55 | 1016.7 |
| 20260510133249 | 8 | 15 | 1.6 | 11.3 | 0.00 | 0.03 | 0.00 | 54 | 1016.7 |
| 20260510133106 | 8 | 265 | 4.8 | 11.3 | 0.00 | 0.03 | 0.00 | 54 | 1016.7 |
| 20260510132931 | 8 | 284 | 6.4 | 11.3 | 0.00 | 0.03 | 0.00 | 54 | 1016.7 |
| 20260510132814 | 8 | 325 | 3.2 | 11.3 | 0.00 | 0.03 | 0.00 | 54 | 1016.7 |
| 20260510132651 | 8 | 336 | 4.8 | 11.3 | 0.00 | 0.03 | 0.00 | 56 | 1016.7 |
| 20260510132529 | 8 | 309 | 3.2 | 9.7 | 0.00 | 0.03 | 0.00 | 56 | 1016.6 |
| 20260510132407 | 8 | 292 | 4.8 | 9.7 | 0.00 | 0.03 | 0.00 | 55 | 1016.6 |
| 20260510132248 | 8 | 271 | 6.4 | 9.7 | 0.00 | 0.03 | 0.00 | 55 | 1016.7 |
| 20260510132126 | 8 | 301 | 6.4 | 9.7 | 0.00 | 0.03 | 0.00 | 55 | 1016.7 |
| 20260510132003 | 8 | 315 | 6.4 | 9.7 | 0.00 | 0.03 | 0.00 | 55 | 1016.7 |
| 20260510131841 | 8 | 340 | 6.4 | 8.0 | 0.00 | 0.03 | 0.00 | 56 | 1016.7 |
| 20260510131723 | 8 | 321 | 4.8 | 12.9 | 0.00 | 0.03 | 0.00 | 56 | 1016.7 |
| 20260510131602 | 8 | 290 | 3.2 | 12.9 | 0.00 | 0.03 | 0.00 | 56 | 1016.7 |
| 20260510131439 | 8 | 316 | 1.6 | 12.9 | 0.00 | 0.03 | 0.00 | 56 | 1016.6 |
| 20260510131317 | 8 | 325 | 3.2 | 12.9 | 0.00 | 0.03 | 0.00 | 57 | 1016.6 |
| 20260510131144 | 8 | 305 | 6.4 | 12.9 | 0.00 | 0.03 | 0.00 | 57 | 1016.7 |
| 20260510131020 | 8 | 317 | 6.4 | 12.9 | 0.00 | 0.03 | 0.00 | 57 | 1016.6 |
| 20260510130838 | 8 | 335 | 3.2 | 9.7 | 0.00 | 0.03 | 0.00 | 57 | 1016.6 |
| 20260510130720 | 8 | 341 | 3.2 | 9.7 | 0.00 | 0.03 | 0.00 | 57 | 1016.6 |
| 20260510130541 | 8 | 13 | 4.8 | 9.7 | 0.00 | 0.03 | 0.00 | 58 | 1016.6 |
| 20260510130417 | 8 | 288 | 1.6 | 8.0 | 0.00 | 0.03 | 0.00 | 58 | 1016.5 |
| 20260510130254 | 8 | 312 | 1.6 | 8.0 | 0.00 | 0.03 | 0.00 | 59 | 1016.5 |
| 20260510130111 | 8 | 323 | 4.8 | 9.7 | 0.00 | 0.03 | 0.00 | 59 | 1016.5 |
| 20260510125953 | 8 | 303 | 4.8 | 9.7 | 0.00 | 0.03 | 0.00 | 60 | 1016.4 |
| 20260510125834 | 8 | 304 | 4.8 | 9.7 | 0.00 | 0.03 | 0.00 | 60 | 1016.5 |
| 20260510125712 | 8 | 328 | 3.2 | 9.7 | 0.00 | 0.03 | 0.00 | 60 | 1016.4 |
| 20260510125554 | 7 | 51 | 3.2 | 9.7 | 0.00 | 0.03 | 0.00 | 60 | 1016.4 |
| 20260510125433 | 7 | 35 | 6.4 | 9.7 | 0.00 | 0.03 | 0.00 | 60 | 1016.4 |
| 20260510125252 | 7 | 59 | 4.8 | 9.7 | 0.00 | 0.03 | 0.00 | 60 | 1016.4 |
| 20260510125129 | 7 | 13 | 6.4 | 9.7 | 0.00 | 0.03 | 0.00 | 60 | 1016.4 |
| 20260510125007 | 7 | 336 | 6.4 | 9.7 | 0.00 | 0.03 | 0.00 | 61 | 1016.4 |
| 20260510124807 | 7 | 347 | 6.4 | 9.7 | 0.00 | 0.03 | 0.00 | 61 | 1016.4 |
| 20260510124648 | 7 | 319 | 6.4 | 9.7 | 0.00 | 0.03 | 0.00 | 61 | 1016.4 |
| 20260510124504 | 7 | 315 | 4.8 | 9.7 | 0.00 | 0.03 | 0.00 | 60 | 1016.3 |
| 20260510124341 | 7 | 296 | 6.4 | 11.3 | 0.00 | 0.03 | 0.00 | 60 | 1016.4 |
| 20260510124216 | 7 | 294 | 6.4 | 11.3 | 0.00 | 0.03 | 0.00 | 60 | 1016.3 |
| 20260510124053 | 7 | 319 | 6.4 | 11.3 | 0.00 | 0.03 | 0.00 | 61 | 1016.3 |
| 20260510123936 | 7 | 321 | 4.8 | 11.3 | 0.00 | 0.03 | 0.00 | 61 | 1016.3 |
| 20260510123814 | 7 | 340 | 4.8 | 11.3 | 0.00 | 0.03 | 0.00 | 61 | 1016.3 |
| 20260510123651 | 7 | 289 | 8.0 | 11.3 | 0.00 | 0.03 | 0.00 | 61 | 1016.2 |
| 20260510123532 | 7 | 292 | 8.0 | 11.3 | 0.00 | 0.03 | 0.00 | 61 | 1016.2 |
| 20260510123413 | 7 | 304 | 6.4 | 11.3 | 0.00 | 0.03 | 0.00 | 62 | 1016.2 |
| 20260510123209 | 7 | 303 | 4.8 | 8.0 | 0.00 | 0.03 | 0.00 | 63 | 1016.2 |
| 20260510123045 | 7 | 327 | 4.8 | 8.0 | 0.00 | 0.03 | 0.00 | 63 | 1016.2 |
| 20260510122924 | 7 | 319 | 4.8 | 8.0 | 0.00 | 0.03 | 0.00 | 63 | 1016.1 |
| 20260510122744 | 7 | 306 | 4.8 | 8.0 | 0.00 | 0.03 | 0.00 | 63 | 1016.1 |
| 20260510122627 | 7 | 306 | 4.8 | 8.0 | 0.00 | 0.03 | 0.00 | 64 | 1016.1 |
| 20260510122443 | 7 | 315 | 4.8 | 8.0 | 0.00 | 0.03 | 0.00 | 64 | 1016.1 |
| 20260510122325 | 7 | 338 | 3.2 | 8.0 | 0.00 | 0.03 | 0.00 | 65 | 1016.1 |
| 20260510122203 | 7 | 355 | 1.6 | 8.0 | 0.00 | 0.03 | 0.00 | 66 | 1016.0 |
| 20260510122024 | 7 | 327 | 3.2 | 8.0 | 0.00 | 0.03 | 0.00 | 66 | 1016.0 |
| 20260510121902 | 7 | 330 | 3.2 | 8.0 | 0.00 | 0.03 | 0.00 | 67 | 1016.0 |
| 20260510121740 | 7 | 329 | 3.2 | 4.8 | 0.00 | 0.03 | 0.00 | 68 | 1016.0 |
| 20260510121556 | 7 | 326 | 1.6 | 3.2 | 0.00 | 0.03 | 0.00 | 69 | 1016.0 |
| 20260510121438 | 6 | 342 | 0.0 | 3.2 | 0.00 | 0.03 | 0.00 | 69 | 1016.0 |
| 20260510121259 | 6 | 340 | 0.0 | 1.6 | 0.00 | 0.03 | 0.00 | 70 | 1016.0 |
| 20260510121136 | 6 | 340 | 0.0 | 1.6 | 0.00 | 0.03 | 0.00 | 70 | 1016.0 |
| 20260510121016 | 6 | 340 | 0.0 | 1.6 | 0.00 | 0.03 | 0.00 | 70 | 1016.0 |
| 20260510120858 | 6 | 340 | 0.0 | 1.6 | 0.00 | 0.03 | 0.00 | 70 | 1016.0 |
| 20260510120739 | 6 | 340 | 0.0 | 1.6 | 0.00 | 0.03 | 0.00 | 70 | 1016.0 |
| 20260510120617 | 6 | 340 | 0.0 | 1.6 | 0.00 | 0.03 | 0.00 | 70 | 1015.9 |
| 20260510120455 | 6 | 340 | 0.0 | 1.6 | 0.00 | 0.03 | 0.00 | 70 | 1016.0 |
| 20260510120333 | 6 | 340 | 0.0 | 1.6 | 0.00 | 0.03 | 0.00 | 70 | 1016.0 |
| 20260510120215 | 6 | 340 | 0.0 | 0.0 | 0.00 | 0.03 | 0.00 | 70 | 1016.0 |
| 20260510120056 | 6 | 340 | 0.0 | 0.0 | 0.00 | 0.03 | 0.00 | 71 | 1015.9 |
| 20260510115938 | 6 | 340 | 0.0 | 0.0 | 0.00 | 0.03 | 0.00 | 71 | 1015.8 |
| 20260510115816 | 6 | 340 | 0.0 | 0.0 | 0.00 | 0.03 | 0.00 | 71 | 1015.8 |
| 20260510115657 | 6 | 340 | 0.0 | 0.0 | 0.00 | 0.03 | 0.00 | 71 | 1015.8 |
| 20260510115535 | 6 | 340 | 0.0 | 0.0 | 0.00 | 0.03 | 0.00 | 72 | 1015.8 |
| 20260510115413 | 6 | 340 | 0.0 | 0.0 | 0.00 | 0.03 | 0.00 | 72 | 1015.8 |
| 20260510115251 | 5 | 340 | 0.0 | 1.6 | 0.00 | 0.03 | 0.00 | 72 | 1015.7 |
| 20260510115133 | 5 | 340 | 0.0 | 1.6 | 0.00 | 0.03 | 0.00 | 72 | 1015.7 |
| 20260510114950 | 5 | 340 | 0.0 | 1.6 | 0.00 | 0.03 | 0.00 | 72 | 1015.7 |
| 20260510114828 | 5 | 340 | 0.0 | 1.6 | 0.00 | 0.03 | 0.00 | 73 | 1015.7 |
| 20260510114648 | 5 | 340 | 0.0 | 1.6 | 0.00 | 0.03 | 0.00 | 73 | 1015.7 |
| 20260510114529 | 5 | 340 | 0.0 | 1.6 | 0.00 | 0.03 | 0.00 | 73 | 1015.6 |
| 20260510114411 | 5 | 340 | 0.0 | 0.0 | 0.00 | 0.03 | 0.00 | 73 | 1015.6 |
| 20260510114249 | 5 | 340 | 0.0 | 0.0 | 0.00 | 0.03 | 0.00 | 73 | 1015.5 |
| 20260510114127 | 5 | 340 | 0.0 | 0.0 | 0.00 | 0.03 | 0.00 | 73 | 1015.5 |
| 20260510114005 | 5 | 340 | 0.0 | 0.0 | 0.00 | 0.03 | 0.00 | 74 | 1015.5 |
| 20260510113826 | 5 | 340 | 0.0 | 0.0 | 0.00 | 0.03 | 0.00 | 75 | 1015.6 |
| 20260510113704 | 5 | 340 | 0.0 | 0.0 | 0.00 | 0.03 | 0.00 | 75 | 1015.5 |
| 20260510113542 | 5 | 340 | 0.0 | 0.0 | 0.00 | 0.03 | 0.00 | 75 | 1015.5 |
| 20260510113419 | 5 | 340 | 0.0 | 0.0 | 0.00 | 0.03 | 0.00 | 76 | 1015.5 |
| 20260510113245 | 5 | 340 | 0.0 | 0.0 | 0.00 | 0.03 | 0.00 | 76 | 1015.4 |
| 20260510113102 | 5 | 340 | 0.0 | 0.0 | 0.00 | 0.03 | 0.00 | 76 | 1015.4 |
| 20260510112940 | 5 | 340 | 0.0 | 0.0 | 0.00 | 0.03 | 0.00 | 76 | 1015.4 |
| 20260510112818 | 4 | 340 | 0.0 | 0.0 | 0.00 | 0.03 | 0.00 | 77 | 1015.3 |
| 20260510112700 | 4 | 340 | 0.0 | 0.0 | 0.00 | 0.03 | 0.00 | 77 | 1015.4 |
| 20260510112538 | 4 | 340 | 0.0 | 0.0 | 0.00 | 0.03 | 0.00 | 77 | 1015.4 |
| 20260510112355 | 4 | 340 | 0.0 | 0.0 | 0.00 | 0.03 | 0.00 | 77 | 1015.3 |
| 20260510112237 | 3 | 340 | 0.0 | 0.0 | 0.00 | 0.03 | 0.00 | 77 | 1015.3 |
| 20260510112115 | 3 | 340 | 0.0 | 0.0 | 0.00 | 0.03 | 0.00 | 77 | 1015.3 |
| 20260510111957 | 3 | 340 | 0.0 | 0.0 | 0.00 | 0.03 | 0.00 | 77 | 1015.3 |
| 20260510111839 | 3 | 340 | 0.0 | 0.0 | 0.00 | 0.03 | 0.00 | 77 | 1015.3 |
| 20260510111716 | 3 | 340 | 0.0 | 0.0 | 0.00 | 0.03 | 0.00 | 77 | 1015.3 |
| 20260510111555 | 3 | 340 | 0.0 | 0.0 | 0.00 | 0.03 | 0.00 | 78 | 1015.2 |
| 20260510111437 | 3 | 340 | 0.0 | 0.0 | 0.00 | 0.03 | 0.00 | 78 | 1015.2 |
| 20260510111253 | 3 | 340 | 0.0 | 0.0 | 0.00 | 0.03 | 0.00 | 78 | 1015.2 |
| 20260510111131 | 3 | 341 | 0.0 | 0.0 | 0.00 | 0.03 | 0.00 | 77 | 1015.2 |
| 20260510111008 | 3 | 340 | 0.0 | 0.0 | 0.00 | 0.03 | 0.00 | 77 | 1015.2 |
| 20260510110833 | 3 | 340 | 0.0 | 0.0 | 0.00 | 0.03 | 0.00 | 77 | 1015.2 |
| 20260510110710 | 3 | 340 | 0.0 | 0.0 | 0.00 | 0.03 | 0.00 | 77 | 1015.2 |
| 20260510110548 | 3 | 340 | 0.0 | 0.0 | 0.00 | 0.03 | 0.00 | 77 | 1015.2 |
| 20260510110426 | 3 | 340 | 0.0 | 0.0 | 0.00 | 0.03 | 0.00 | 77 | 1015.2 |
| 20260510110308 | 3 | 340 | 0.0 | 0.0 | 0.00 | 0.03 | 0.00 | 77 | 1015.2 |
| 20260510110130 | 3 | 341 | 0.0 | 0.0 | 0.00 | 0.03 | 0.00 | 77 | 1015.1 |
| 20260510110007 | 3 | 340 | 0.0 | 0.0 | 0.00 | 0.03 | 0.00 | 78 | 1015.1 |
| 20260510105844 | 3 | 340 | 0.0 | 0.0 | 0.00 | 0.03 | 0.00 | 78 | 1015.1 |
| 20260510105711 | 3 | 340 | 0.0 | 0.0 | 0.00 | 0.03 | 0.00 | 78 | 1015.1 |
| 20260510105528 | 2 | 341 | 0.0 | 0.0 | 0.00 | 0.03 | 0.00 | 78 | 1015.0 |
| 20260510105406 | 2 | 340 | 0.0 | 0.0 | 0.00 | 0.03 | 0.00 | 77 | 1015.0 |
| 20260510105244 | 2 | 341 | 0.0 | 0.0 | 0.00 | 0.03 | 0.00 | 77 | 1015.0 |
| 20260510105127 | 2 | 340 | 0.0 | 0.0 | 0.00 | 0.03 | 0.00 | 77 | 1015.0 |
| 20260510104948 | 2 | 340 | 0.0 | 0.0 | 0.00 | 0.03 | 0.00 | 77 | 1015.0 |
| 20260510104826 | 2 | 340 | 0.0 | 0.0 | 0.00 | 0.03 | 0.00 | 77 | 1015.0 |
| 20260510104704 | 2 | 340 | 0.0 | 0.0 | 0.00 | 0.03 | 0.00 | 77 | 1015.0 |
| 20260510104546 | 2 | 341 | 0.0 | 0.0 | 0.00 | 0.03 | 0.00 | 77 | 1015.0 |
| 20260510104426 | 2 | 341 | 0.0 | 0.0 | 0.00 | 0.03 | 0.00 | 77 | 1014.9 |
| 20260510104305 | 2 | 340 | 0.0 | 0.0 | 0.00 | 0.03 | 0.00 | 77 | 1014.9 |
| 20260510104121 | 2 | 340 | 0.0 | 0.0 | 0.00 | 0.03 | 0.00 | 76 | 1014.9 |
| 20260510103938 | 2 | 341 | 0.0 | 0.0 | 0.00 | 0.03 | 0.00 | 76 | 1014.8 |
| 20260510103758 | 2 | 340 | 0.0 | 0.0 | 0.00 | 0.03 | 0.00 | 76 | 1014.8 |
| 20260510103614 | 2 | 340 | 0.0 | 0.0 | 0.00 | 0.03 | 0.00 | 75 | 1014.8 |
| 20260510103457 | 2 | 340 | 0.0 | 0.0 | 0.00 | 0.03 | 0.00 | 75 | 1014.8 |
| 20260510103313 | 3 | 340 | 0.0 | 0.0 | 0.00 | 0.03 | 0.00 | 75 | 1014.7 |
| 20260510103151 | 3 | 340 | 0.0 | 0.0 | 0.00 | 0.03 | 0.00 | 75 | 1014.8 |
| 20260510103032 | 3 | 340 | 0.0 | 0.0 | 0.00 | 0.03 | 0.00 | 75 | 1014.7 |
| 20260510102910 | 3 | 340 | 0.0 | 0.0 | 0.00 | 0.03 | 0.00 | 75 | 1014.8 |
| 20260510102730 | 3 | 340 | 0.0 | 0.0 | 0.00 | 0.03 | 0.00 | 75 | 1014.7 |
| 20260510102608 | 3 | 341 | 0.0 | 0.0 | 0.00 | 0.03 | 0.00 | 74 | 1014.7 |
| 20260510102450 | 3 | 340 | 0.0 | 0.0 | 0.00 | 0.03 | 0.00 | 74 | 1014.7 |
| 20260510102328 | 3 | 341 | 0.0 | 0.0 | 0.00 | 0.03 | 0.00 | 74 | 1014.7 |
| 20260510102206 | 3 | 341 | 0.0 | 0.0 | 0.00 | 0.03 | 0.00 | 74 | 1014.7 |
| 20260510102044 | 3 | 340 | 0.0 | 0.0 | 0.00 | 0.03 | 0.00 | 74 | 1014.6 |
| 20260510101925 | 3 | 341 | 0.0 | 0.0 | 0.00 | 0.03 | 0.00 | 74 | 1014.6 |
| 20260510101742 | 3 | 340 | 0.0 | 0.0 | 0.00 | 0.03 | 0.00 | 74 | 1014.6 |
| 20260510101619 | 3 | 340 | 0.0 | 0.0 | 0.00 | 0.03 | 0.00 | 74 | 1014.5 |
| 20260510101456 | 3 | 340 | 0.0 | 0.0 | 0.00 | 0.03 | 0.00 | 74 | 1014.5 |
| 20260510101317 | 3 | 340 | 0.0 | 0.0 | 0.00 | 0.03 | 0.00 | 74 | 1014.5 |
| 20260510101159 | 3 | 340 | 0.0 | 0.0 | 0.00 | 0.03 | 0.00 | 73 | 1014.5 |
| 20260510101037 | 3 | 340 | 0.0 | 0.0 | 0.00 | 0.03 | 0.00 | 73 | 1014.5 |
| 20260510100915 | 3 | 340 | 0.0 | 0.0 | 0.00 | 0.03 | 0.00 | 73 | 1014.5 |
| 20260510100752 | 3 | 340 | 0.0 | 0.0 | 0.00 | 0.03 | 0.00 | 73 | 1014.5 |
| 20260510100613 | 3 | 340 | 0.0 | 0.0 | 0.00 | 0.03 | 0.00 | 73 | 1014.5 |
| 20260510100451 | 3 | 340 | 0.0 | 0.0 | 0.00 | 0.03 | 0.00 | 73 | 1014.5 |
| 20260510100308 | 3 | 340 | 0.0 | 0.0 | 0.00 | 0.03 | 0.00 | 73 | 1014.5 |
| 20260510100145 | 3 | 340 | 0.0 | 0.0 | 0.00 | 0.03 | 0.00 | 72 | 1014.5 |
| 20260510100026 | 3 | 340 | 0.0 | 0.0 | 0.00 | 0.03 | 0.00 | 72 | 1014.5 |
| 20260510095904 | 3 | 340 | 0.0 | 0.0 | 0.00 | 0.03 | 0.00 | 72 | 1014.5 |
| 20260510095742 | 3 | 340 | 0.0 | 0.0 | 0.00 | 0.03 | 0.00 | 72 | 1014.5 |
| 20260510095620 | 3 | 340 | 0.0 | 0.0 | 0.00 | 0.03 | 0.00 | 72 | 1014.5 |
| 20260510095456 | 3 | 340 | 0.0 | 0.0 | 0.00 | 0.03 | 0.00 | 71 | 1014.5 |
| 20260510095338 | 3 | 340 | 0.0 | 0.0 | 0.00 | 0.03 | 0.00 | 71 | 1014.5 |
| 20260510095221 | 3 | 340 | 0.0 | 0.0 | 0.00 | 0.03 | 0.00 | 71 | 1014.4 |
| 20260510095058 | 3 | 341 | 0.0 | 0.0 | 0.00 | 0.03 | 0.00 | 70 | 1014.4 |
| 20260510094941 | 3 | 340 | 0.0 | 0.0 | 0.00 | 0.03 | 0.00 | 70 | 1014.4 |
| 20260510094802 | 3 | 341 | 0.0 | 0.0 | 0.00 | 0.03 | 0.00 | 70 | 1014.4 |
| 20260510094642 | 3 | 341 | 0.0 | 0.0 | 0.00 | 0.03 | 0.00 | 70 | 1014.3 |
| 20260510094457 | 3 | 340 | 0.0 | 0.0 | 0.00 | 0.03 | 0.00 | 70 | 1014.4 |
| 20260510094335 | 3 | 340 | 0.0 | 0.0 | 0.00 | 0.03 | 0.00 | 70 | 1014.4 |
| 20260510094216 | 3 | 341 | 0.0 | 0.0 | 0.00 | 0.03 | 0.00 | 70 | 1014.3 |
| 20260510094053 | 3 | 341 | 0.0 | 0.0 | 0.00 | 0.03 | 0.00 | 70 | 1014.3 |
| 20260510093931 | 4 | 340 | 0.0 | 0.0 | 0.00 | 0.03 | 0.00 | 70 | 1014.2 |
| 20260510093809 | 4 | 340 | 0.0 | 0.0 | 0.00 | 0.03 | 0.00 | 70 | 1014.3 |
| 20260510093647 | 4 | 340 | 0.0 | 0.0 | 0.00 | 0.03 | 0.00 | 70 | 1014.2 |
| 20260510093529 | 4 | 340 | 0.0 | 0.0 | 0.00 | 0.03 | 0.00 | 70 | 1014.2 |
| 20260510093346 | 4 | 340 | 0.0 | 0.0 | 0.00 | 0.03 | 0.00 | 69 | 1014.1 |
| 20260510093223 | 4 | 340 | 0.0 | 0.0 | 0.00 | 0.03 | 0.00 | 69 | 1014.1 |
| 20260510093040 | 4 | 341 | 0.0 | 0.0 | 0.00 | 0.03 | 0.00 | 69 | 1014.1 |
| 20260510092920 | 4 | 341 | 0.0 | 0.0 | 0.00 | 0.03 | 0.00 | 69 | 1014.1 |
| 20260510092758 | 4 | 340 | 0.0 | 0.0 | 0.00 | 0.03 | 0.00 | 68 | 1014.1 |
| 20260510092640 | 4 | 340 | 0.0 | 0.0 | 0.00 | 0.03 | 0.00 | 68 | 1014.1 |
| 20260510092518 | 4 | 340 | 0.0 | 0.0 | 0.00 | 0.03 | 0.00 | 68 | 1014.0 |
| 20260510092345 | 4 | 340 | 0.0 | 0.0 | 0.00 | 0.03 | 0.00 | 67 | 1014.0 |
| 20260510092222 | 4 | 340 | 0.0 | 0.0 | 0.00 | 0.03 | 0.00 | 67 | 1014.0 |
| 20260510092038 | 4 | 340 | 0.0 | 0.0 | 0.00 | 0.03 | 0.00 | 67 | 1014.0 |
| 20260510091916 | 4 | 340 | 0.0 | 0.0 | 0.00 | 0.03 | 0.00 | 67 | 1014.0 |
| 20260510091737 | 4 | 340 | 0.0 | 0.0 | 0.00 | 0.03 | 0.00 | 66 | 1014.0 |
| 20260510091614 | 4 | 340 | 0.0 | 0.0 | 0.00 | 0.03 | 0.00 | 66 | 1014.0 |
| 20260510091452 | 5 | 340 | 0.0 | 0.0 | 0.00 | 0.03 | 0.00 | 65 | 1013.9 |
| 20260510091329 | 5 | 340 | 0.0 | 0.0 | 0.00 | 0.03 | 0.00 | 65 | 1013.9 |
| 20260510091206 | 5 | 340 | 0.0 | 0.0 | 0.00 | 0.03 | 0.00 | 65 | 1013.9 |
| 20260510091048 | 5 | 341 | 0.0 | 0.0 | 0.00 | 0.03 | 0.00 | 64 | 1013.9 |
| 20260510090925 | 5 | 340 | 0.0 | 0.0 | 0.00 | 0.03 | 0.00 | 64 | 1013.8 |
| 20260510090803 | 5 | 340 | 0.0 | 0.0 | 0.00 | 0.03 | 0.00 | 64 | 1013.8 |
| 20260510090641 | 5 | 340 | 0.0 | 0.0 | 0.00 | 0.03 | 0.00 | 64 | 1013.8 |
| 20260510090523 | 5 | 340 | 0.0 | 0.0 | 0.00 | 0.03 | 0.00 | 64 | 1013.7 |
| 20260510090340 | 5 | 340 | 0.0 | 0.0 | 0.00 | 0.03 | 0.00 | 64 | 1013.7 |
| 20260510090222 | 5 | 341 | 0.0 | 0.0 | 0.00 | 0.03 | 0.00 | 64 | 1013.6 |
| 20260510090100 | 5 | 341 | 0.0 | 0.0 | 0.00 | 0.03 | 0.00 | 64 | 1013.6 |
| 20260510085941 | 5 | 341 | 0.0 | 0.0 | 0.00 | 0.03 | 0.00 | 64 | 1013.5 |
| 20260510085819 | 5 | 340 | 0.0 | 0.0 | 0.00 | 0.03 | 0.00 | 64 | 1013.5 |
| 20260510085656 | 5 | 340 | 0.0 | 0.0 | 0.00 | 0.03 | 0.00 | 64 | 1013.5 |
| 20260510085535 | 5 | 340 | 0.0 | 0.0 | 0.00 | 0.03 | 0.00 | 63 | 1013.5 |
| 20260510085412 | 5 | 340 | 0.0 | 0.0 | 0.00 | 0.03 | 0.00 | 63 | 1013.5 |
| 20260510085255 | 5 | 340 | 0.0 | 0.0 | 0.00 | 0.03 | 0.00 | 62 | 1013.4 |
| 20260510085132 | 5 | 340 | 0.0 | 0.0 | 0.00 | 0.03 | 0.00 | 62 | 1013.4 |
| 20260510085010 | 5 | 340 | 0.0 | 0.0 | 0.00 | 0.03 | 0.00 | 62 | 1013.3 |
| 20260510084853 | 5 | 340 | 0.0 | 0.0 | 0.00 | 0.03 | 0.00 | 62 | 1013.3 |
| 20260510084713 | 5 | 340 | 0.0 | 0.0 | 0.00 | 0.03 | 0.00 | 62 | 1013.3 |
| 20260510084552 | 5 | 340 | 0.0 | 0.0 | 0.00 | 0.03 | 0.00 | 62 | 1013.3 |
| 20260510084434 | 6 | 340 | 0.0 | 0.0 | 0.00 | 0.03 | 0.00 | 62 | 1013.3 |
| 20260510084311 | 6 | 341 | 0.0 | 0.0 | 0.00 | 0.03 | 0.00 | 62 | 1013.3 |
| 20260510084153 | 6 | 340 | 0.0 | 0.0 | 0.00 | 0.03 | 0.00 | 61 | 1013.3 |
| 20260510084029 | 6 | 340 | 0.0 | 3.2 | 0.00 | 0.03 | 0.00 | 61 | 1013.3 |
| 20260510083907 | 5 | 341 | 0.0 | 4.8 | 0.00 | 0.03 | 0.00 | 61 | 1013.3 |
| 20260510083745 | 5 | 340 | 0.0 | 4.8 | 0.00 | 0.03 | 0.00 | 61 | 1013.3 |
| 20260510083627 | 5 | 341 | 0.0 | 4.8 | 0.00 | 0.03 | 0.00 | 61 | 1013.2 |
| 20260510083509 | 5 | 340 | 0.0 | 6.4 | 0.00 | 0.03 | 0.00 | 61 | 1013.3 |
| 20260510083347 | 5 | 340 | 1.6 | 6.4 | 0.00 | 0.03 | 0.00 | 61 | 1013.3 |
| 20260510083229 | 5 | 340 | 1.6 | 6.4 | 0.00 | 0.03 | 0.00 | 61 | 1013.2 |
| 20260510083106 | 5 | 338 | 1.6 | 6.4 | 0.00 | 0.03 | 0.00 | 61 | 1013.3 |
| 20260510082947 | 6 | 336 | 1.6 | 6.4 | 0.00 | 0.03 | 0.00 | 61 | 1013.3 |
| 20260510082826 | 6 | 347 | 1.6 | 6.4 | 0.00 | 0.03 | 0.00 | 61 | 1013.2 |
| 20260510082706 | 6 | 341 | 0.0 | 4.8 | 0.00 | 0.03 | 0.00 | 60 | 1013.2 |
| 20260510082544 | 6 | 333 | 0.0 | 4.8 | 0.00 | 0.03 | 0.00 | 60 | 1013.2 |
| 20260510082405 | 6 | 333 | 1.6 | 4.8 | 0.00 | 0.03 | 0.00 | 60 | 1013.2 |
| 20260510082247 | 6 | 333 | 3.2 | 4.8 | 0.00 | 0.03 | 0.00 | 60 | 1013.2 |
| 20260510082128 | 6 | 333 | 1.6 | 4.8 | 0.00 | 0.03 | 0.00 | 60 | 1013.2 |
| 20260510081945 | 6 | 333 | 0.0 | 4.8 | 0.00 | 0.03 | 0.00 | 60 | 1013.2 |
| 20260510081823 | 6 | 333 | 0.0 | 4.8 | 0.00 | 0.03 | 0.00 | 59 | 1013.1 |
| 20260510081705 | 6 | 331 | 1.6 | 6.4 | 0.00 | 0.03 | 0.00 | 59 | 1013.1 |
| 20260510081542 | 6 | 331 | 1.6 | 6.4 | 0.00 | 0.03 | 0.00 | 59 | 1013.1 |
| 20260510081420 | 6 | 331 | 1.6 | 6.4 | 0.00 | 0.03 | 0.00 | 59 | 1013.1 |
| 20260510081258 | 6 | 328 | 1.6 | 6.4 | 0.00 | 0.03 | 0.00 | 59 | 1013.0 |
| 20260510081118 | 6 | 336 | 3.2 | 8.0 | 0.00 | 0.03 | 0.00 | 59 | 1013.0 |
| 20260510080934 | 6 | 323 | 3.2 | 8.0 | 0.00 | 0.03 | 0.00 | 59 | 1013.0 |
| 20260510080812 | 6 | 348 | 3.2 | 8.0 | 0.00 | 0.03 | 0.00 | 59 | 1013.0 |
| 20260510080628 | 6 | 342 | 3.2 | 8.0 | 0.00 | 0.03 | 0.00 | 59 | 1012.9 |
| 20260510080449 | 6 | 338 | 3.2 | 8.0 | 0.00 | 0.03 | 0.00 | 59 | 1012.9 |
| 20260510080327 | 6 | 355 | 3.2 | 8.0 | 0.00 | 0.03 | 0.00 | 59 | 1012.8 |
| 20260510080204 | 6 | 355 | 4.8 | 8.0 | 0.00 | 0.03 | 0.00 | 59 | 1012.8 |
| 20260510080042 | 6 | 342 | 4.8 | 8.0 | 0.00 | 0.03 | 0.00 | 59 | 1012.8 |
| 20260510075859 | 6 | 341 | 4.8 | 8.0 | 0.00 | 0.03 | 0.00 | 59 | 1012.8 |
| 20260510075739 | 6 | 360 | 3.2 | 8.0 | 0.00 | 0.03 | 0.00 | 59 | 1012.8 |
| 20260510075617 | 6 | 325 | 3.2 | 8.0 | 0.00 | 0.03 | 0.00 | 59 | 1012.7 |
| 20260510075459 | 6 | 333 | 4.8 | 9.7 | 0.00 | 0.03 | 0.00 | 59 | 1012.7 |
| 20260510075338 | 6 | 344 | 3.2 | 9.7 | 0.00 | 0.03 | 0.00 | 59 | 1012.7 |
| 20260510075158 | 6 | 360 | 4.8 | 9.7 | 0.00 | 0.03 | 0.00 | 58 | 1012.7 |
| 20260510075015 | 6 | 355 | 4.8 | 9.7 | 0.00 | 0.03 | 0.00 | 59 | 1012.6 |
| 20260510074853 | 6 | 336 | 4.8 | 9.7 | 0.00 | 0.03 | 0.00 | 59 | 1012.6 |
| 20260510074735 | 6 | 343 | 4.8 | 9.7 | 0.00 | 0.03 | 0.00 | 59 | 1012.6 |
| 20260510074617 | 6 | 344 | 4.8 | 9.7 | 0.00 | 0.03 | 0.00 | 59 | 1012.6 |
| 20260510074454 | 6 | 355 | 4.8 | 9.7 | 0.00 | 0.03 | 0.00 | 59 | 1012.6 |
| 20260510074335 | 6 | 336 | 3.2 | 9.7 | 0.00 | 0.03 | 0.00 | 59 | 1012.6 |
| 20260510074213 | 6 | 325 | 6.4 | 9.7 | 0.00 | 0.03 | 0.00 | 59 | 1012.5 |
| 20260510074049 | 6 | 348 | 4.8 | 9.7 | 0.00 | 0.03 | 0.00 | 59 | 1012.5 |
| 20260510073930 | 6 | 5 | 4.8 | 9.7 | 0.00 | 0.03 | 0.00 | 60 | 1012.5 |
| 20260510073807 | 6 | 336 | 6.4 | 9.7 | 0.00 | 0.03 | 0.00 | 60 | 1012.5 |
| 20260510073646 | 7 | 317 | 4.8 | 9.7 | 0.00 | 0.03 | 0.00 | 59 | 1012.5 |
| 20260510073525 | 7 | 333 | 3.2 | 9.7 | 0.00 | 0.03 | 0.00 | 60 | 1012.4 |
| 20260510073330 | 7 | 323 | 3.2 | 9.7 | 0.00 | 0.03 | 0.00 | 60 | 1012.3 |
| 20260510073212 | 7 | 331 | 3.2 | 9.7 | 0.00 | 0.03 | 0.00 | 60 | 1012.3 |
| 20260510073050 | 7 | 360 | 4.8 | 9.7 | 0.00 | 0.03 | 0.00 | 60 | 1012.3 |
| 20260510072927 | 7 | 5 | 4.8 | 11.3 | 0.00 | 0.03 | 0.00 | 60 | 1012.2 |
| 20260510072807 | 7 | 5 | 6.4 | 11.3 | 0.00 | 0.03 | 0.00 | 60 | 1012.2 |
| 20260510072629 | 7 | 15 | 6.4 | 11.3 | 0.00 | 0.03 | 0.00 | 60 | 1012.1 |
| 20260510072506 | 7 | 5 | 4.8 | 11.3 | 0.00 | 0.03 | 0.00 | 60 | 1012.1 |
| 20260510072348 | 7 | 18 | 4.8 | 11.3 | 0.00 | 0.03 | 0.00 | 60 | 1012.1 |
| 20260510072208 | 7 | 336 | 6.4 | 11.3 | 0.00 | 0.03 | 0.00 | 60 | 1012.1 |
| 20260510072047 | 7 | 340 | 4.8 | 9.7 | 0.00 | 0.03 | 0.00 | 60 | 1012.1 |
| 20260510071924 | 7 | 347 | 4.8 | 9.7 | 0.00 | 0.03 | 0.00 | 60 | 1012.0 |
| 20260510071801 | 7 | 336 | 6.4 | 9.7 | 0.00 | 0.03 | 0.00 | 60 | 1012.0 |
| 20260510071637 | 7 | 360 | 4.8 | 9.7 | 0.00 | 0.03 | 0.00 | 60 | 1012.0 |
| 20260510071518 | 7 | 355 | 4.8 | 9.7 | 0.00 | 0.03 | 0.00 | 60 | 1011.9 |
| 20260510071356 | 7 | 9 | 4.8 | 9.7 | 0.00 | 0.03 | 0.00 | 60 | 1011.9 |
| 20260510071233 | 7 | 338 | 6.4 | 9.7 | 0.00 | 0.03 | 0.00 | 60 | 1011.9 |
| 20260510071110 | 7 | 15 | 6.4 | 9.7 | 0.00 | 0.03 | 0.00 | 60 | 1011.9 |
| 20260510070952 | 7 | 20 | 4.8 | 9.7 | 0.00 | 0.03 | 0.00 | 60 | 1011.9 |
| 20260510070829 | 7 | 343 | 4.8 | 12.9 | 0.00 | 0.03 | 0.00 | 60 | 1011.8 |
| 20260510070707 | 7 | 348 | 4.8 | 12.9 | 0.00 | 0.03 | 0.00 | 60 | 1011.8 |
| 20260510070529 | 7 | 355 | 4.8 | 12.9 | 0.00 | 0.03 | 0.00 | 60 | 1011.8 |
| 20260510070409 | 7 | 355 | 4.8 | 12.9 | 0.00 | 0.03 | 0.00 | 60 | 1011.8 |
| 20260510070248 | 7 | 327 | 6.4 | 12.9 | 0.00 | 0.03 | 0.00 | 60 | 1011.7 |
| 20260510070130 | 7 | 355 | 8.0 | 12.9 | 0.00 | 0.03 | 0.00 | 59 | 1011.7 |
| 20260510065946 | 7 | 16 | 8.0 | 12.9 | 0.00 | 0.03 | 0.00 | 60 | 1011.7 |
| 20260510065823 | 7 | 31 | 6.4 | 12.9 | 0.00 | 0.03 | 0.00 | 60 | 1011.7 |
| 20260510065705 | 7 | 5 | 4.8 | 12.9 | 0.00 | 0.03 | 0.00 | 60 | 1011.7 |
| 20260510065542 | 7 | 321 | 8.0 | 12.9 | 0.00 | 0.03 | 0.00 | 60 | 1011.7 |
| 20260510065401 | 7 | 28 | 4.8 | 9.7 | 0.00 | 0.03 | 0.00 | 61 | 1011.7 |
| 20260510065239 | 7 | 20 | 3.2 | 8.0 | 0.00 | 0.03 | 0.00 | 61 | 1011.7 |
| 20260510065059 | 7 | 16 | 3.2 | 8.0 | 0.00 | 0.03 | 0.00 | 60 | 1011.6 |
| 20260510064940 | 8 | 17 | 3.2 | 9.7 | 0.00 | 0.03 | 0.00 | 60 | 1011.6 |
| 20260510064818 | 8 | 11 | 4.8 | 9.7 | 0.00 | 0.03 | 0.00 | 60 | 1011.5 |
| 20260510064640 | 8 | 27 | 4.8 | 9.7 | 0.00 | 0.03 | 0.00 | 60 | 1011.5 |
| 20260510064520 | 8 | 12 | 4.8 | 11.3 | 0.00 | 0.03 | 0.00 | 60 | 1011.4 |
| 20260510064357 | 8 | 349 | 4.8 | 11.3 | 0.00 | 0.03 | 0.00 | 60 | 1011.4 |
| 20260510064239 | 8 | 31 | 4.8 | 11.3 | 0.00 | 0.03 | 0.00 | 60 | 1011.4 |
| 20260510064117 | 8 | 9 | 3.2 | 11.3 | 0.00 | 0.03 | 0.00 | 60 | 1011.4 |
| 20260510063955 | 8 | 339 | 3.2 | 11.3 | 0.00 | 0.03 | 0.00 | 60 | 1011.4 |
| 20260510063837 | 8 | 24 | 6.4 | 11.3 | 0.00 | 0.03 | 0.00 | 60 | 1011.3 |
| 20260510063658 | 8 | 338 | 4.8 | 9.7 | 0.00 | 0.03 | 0.00 | 60 | 1011.3 |
| 20260510063515 | 8 | 53 | 6.4 | 9.7 | 0.00 | 0.03 | 0.00 | 60 | 1011.3 |
| 20260510063353 | 8 | 36 | 6.4 | 9.7 | 0.00 | 0.03 | 0.00 | 60 | 1011.3 |
| 20260510063235 | 8 | 355 | 4.8 | 9.7 | 0.00 | 0.03 | 0.00 | 59 | 1011.3 |
| 20260510063113 | 8 | 5 | 3.2 | 9.7 | 0.00 | 0.03 | 0.00 | 59 | 1011.3 |
| 20260510062951 | 8 | 25 | 4.8 | 9.7 | 0.00 | 0.03 | 0.00 | 59 | 1011.3 |
| 20260510062829 | 8 | 343 | 4.8 | 9.7 | 0.00 | 0.03 | 0.00 | 59 | 1011.3 |
| 20260510062710 | 8 | 344 | 6.4 | 9.7 | 0.00 | 0.03 | 0.00 | 59 | 1011.3 |
| 20260510062526 | 8 | 44 | 6.4 | 11.3 | 0.00 | 0.03 | 0.00 | 59 | 1011.2 |
| 20260510062404 | 8 | 36 | 6.4 | 11.3 | 0.00 | 0.03 | 0.00 | 59 | 1011.2 |
| 20260510062243 | 8 | 5 | 4.8 | 11.3 | 0.00 | 0.03 | 0.00 | 59 | 1011.1 |
| 20260510062059 | 8 | 5 | 4.8 | 12.9 | 0.00 | 0.03 | 0.00 | 59 | 1011.2 |
| 20260510061940 | 8 | 338 | 3.2 | 12.9 | 0.00 | 0.03 | 0.00 | 59 | 1011.2 |
| 20260510061822 | 8 | 355 | 6.4 | 12.9 | 0.00 | 0.03 | 0.00 | 59 | 1011.1 |
| 20260510061617 | 8 | 24 | 6.4 | 12.9 | 0.00 | 0.03 | 0.00 | 59 | 1011.0 |
| 20260510061454 | 8 | 44 | 6.4 | 12.9 | 0.00 | 0.03 | 0.00 | 59 | 1011.0 |
| 20260510061336 | 8 | 10 | 6.4 | 12.9 | 0.00 | 0.03 | 0.00 | 59 | 1011.0 |
| 20260510061214 | 8 | 24 | 4.8 | 11.3 | 0.00 | 0.03 | 0.00 | 59 | 1011.0 |
| 20260510061035 | 8 | 57 | 6.4 | 11.3 | 0.00 | 0.03 | 0.00 | 59 | 1011.0 |
| 20260510060916 | 8 | 334 | 6.4 | 11.3 | 0.00 | 0.03 | 0.00 | 59 | 1010.9 |
| 20260510060740 | 8 | 5 | 6.4 | 12.9 | 0.00 | 0.03 | 0.00 | 59 | 1010.9 |
| 20260510060618 | 8 | 5 | 6.4 | 12.9 | 0.00 | 0.03 | 0.00 | 59 | 1010.8 |
| 20260510060455 | 8 | 35 | 6.4 | 12.9 | 0.00 | 0.03 | 0.00 | 59 | 1010.8 |
| 20260510060337 | 8 | 355 | 4.8 | 16.1 | 0.00 | 0.03 | 0.00 | 59 | 1010.8 |
| 20260510060218 | 9 | 33 | 4.8 | 16.1 | 0.00 | 0.03 | 0.00 | 59 | 1010.8 |
| 20260510060050 | 9 | 24 | 8.0 | 16.1 | 0.00 | 0.03 | 0.00 | 59 | 1010.7 |
| 20260510055935 | 9 | 27 | 8.0 | 16.1 | 0.00 | 0.03 | 0.00 | 59 | 1010.8 |
| 20260510055837 | 9 | 26 | 8.0 | 16.1 | 0.00 | 0.03 | 0.00 | 59 | 1010.8 |
| 20260510055739 | 9 | 36 | 6.4 | 16.1 | 0.00 | 0.03 | 0.00 | 60 | 1010.7 |
| 20260510055625 | 9 | 24 | 8.0 | 16.1 | 0.00 | 0.03 | 0.00 | 60 | 1010.7 |
| 20260510055527 | 9 | 52 | 8.0 | 16.1 | 0.00 | 0.03 | 0.00 | 60 | 1010.7 |
| 20260510055429 | 9 | 346 | 4.8 | 11.3 | 0.00 | 0.03 | 0.00 | 60 | 1010.7 |
| 20260510055332 | 9 | 360 | 6.4 | 14.5 | 0.00 | 0.03 | 0.00 | 60 | 1010.7 |
| 20260510055234 | 9 | 342 | 8.0 | 14.5 | 0.00 | 0.03 | 0.00 | 60 | 1010.7 |
| 20260510055136 | 9 | 43 | 6.4 | 14.5 | 0.00 | 0.03 | 0.00 | 61 | 1010.7 |
| 20260510055022 | 9 | 346 | 6.4 | 14.5 | 0.00 | 0.03 | 0.00 | 61 | 1010.6 |
| 20260510054944 | 9 | 355 | 6.4 | 14.5 | 0.00 | 0.03 | 0.00 | 62 | 1010.6 |
| 20260510054826 | 9 | 30 | 4.8 | 14.5 | 0.00 | 0.03 | 0.00 | 62 | 1010.5 |
| 20260510054748 | 9 | 5 | 4.8 | 14.5 | 0.00 | 0.03 | 0.00 | 62 | 1010.5 |
| 20260510054629 | 9 | 9 | 4.8 | 14.5 | 0.00 | 0.03 | 0.00 | 62 | 1010.5 |
| 20260510054530 | 9 | 24 | 6.4 | 14.5 | 0.00 | 0.03 | 0.00 | 62 | 1010.5 |
| 20260510054431 | 9 | 39 | 8.0 | 14.5 | 0.00 | 0.03 | 0.00 | 62 | 1010.5 |
| 20260510054353 | 9 | 42 | 6.4 | 14.5 | 0.00 | 0.03 | 0.00 | 63 | 1010.5 |
| 20260510054254 | 9 | 355 | 8.0 | 12.9 | 0.00 | 0.03 | 0.00 | 63 | 1010.5 |
| 20260510054140 | 9 | 27 | 6.4 | 12.9 | 0.00 | 0.03 | 0.00 | 64 | 1010.5 |
| 20260510054022 | 9 | 32 | 1.6 | 12.9 | 0.00 | 0.03 | 0.00 | 64 | 1010.4 |
| 20260510053945 | 9 | 355 | 3.2 | 12.9 | 0.00 | 0.03 | 0.00 | 64 | 1010.4 |
| 20260510053826 | 9 | 355 | 4.8 | 12.9 | 0.00 | 0.03 | 0.00 | 64 | 1010.4 |
| 20260510053729 | 9 | 319 | 6.4 | 12.9 | 0.00 | 0.03 | 0.00 | 64 | 1010.4 |
| 20260510053631 | 9 | 360 | 8.0 | 12.9 | 0.00 | 0.03 | 0.00 | 64 | 1010.4 |
| 20260510053553 | 9 | 355 | 6.4 | 12.9 | 0.00 | 0.03 | 0.00 | 64 | 1010.4 |
| 20260510053459 | 9 | 360 | 4.8 | 11.3 | 0.00 | 0.03 | 0.00 | 64 | 1010.3 |
| 20260510053400 | 9 | 360 | 4.8 | 9.7 | 0.00 | 0.03 | 0.00 | 65 | 1010.3 |
| 20260510053221 | 9 | 355 | 6.4 | 9.7 | 0.00 | 0.03 | 0.00 | 65 | 1010.2 |
| 20260510053123 | 9 | 12 | 6.4 | 11.3 | 0.00 | 0.03 | 0.00 | 65 | 1010.2 |
| 20260510053045 | 9 | 355 | 4.8 | 11.3 | 0.00 | 0.03 | 0.00 | 66 | 1010.2 |
| 20260510052926 | 9 | 16 | 4.8 | 12.9 | 0.00 | 0.03 | 0.00 | 66 | 1010.2 |
| 20260510052848 | 9 | 5 | 4.8 | 12.9 | 0.00 | 0.03 | 0.00 | 66 | 1010.1 |
| 20260510052749 | 9 | 339 | 4.8 | 14.5 | 0.00 | 0.03 | 0.00 | 66 | 1010.1 |
| 20260510052651 | 9 | 342 | 6.4 | 14.5 | 0.00 | 0.03 | 0.00 | 67 | 1010.1 |
| 20260510052535 | 8 | 320 | 6.4 | 14.5 | 0.00 | 0.03 | 0.00 | 67 | 1010.1 |
| 20260510052437 | 8 | 348 | 6.4 | 14.5 | 0.00 | 0.03 | 0.00 | 68 | 1010.2 |
| 20260510052339 | 8 | 355 | 6.4 | 14.5 | 0.00 | 0.03 | 0.00 | 68 | 1010.1 |
| 20260510052221 | 8 | 338 | 8.0 | 14.5 | 0.00 | 0.03 | 0.00 | 68 | 1010.1 |
| 20260510052124 | 8 | 346 | 8.0 | 14.5 | 0.00 | 0.03 | 0.00 | 69 | 1010.0 |
| 20260510052026 | 8 | 320 | 6.4 | 14.5 | 0.00 | 0.03 | 0.00 | 69 | 1010.1 |
| 20260510051932 | 8 | 329 | 4.8 | 14.5 | 0.00 | 0.03 | 0.00 | 70 | 1010.1 |
| 20260510051854 | 8 | 331 | 3.2 | 6.4 | 0.00 | 0.03 | 0.00 | 70 | 1010.0 |
| 20260510051735 | 8 | 318 | 3.2 | 6.4 | 0.00 | 0.03 | 0.00 | 70 | 1010.1 |
| 20260510051637 | 8 | 310 | 1.6 | 6.4 | 0.00 | 0.03 | 0.00 | 70 | 1010.1 |
| 20260510051539 | 8 | 340 | 1.6 | 6.4 | 0.00 | 0.03 | 0.00 | 70 | 1010.1 |
| 20260510051421 | 8 | 334 | 1.6 | 6.4 | 0.00 | 0.03 | 0.00 | 70 | 1010.1 |
| 20260510051328 | 8 | 319 | 0.0 | 0.0 | 0.00 | 0.03 | 0.00 | 70 | 1010.0 |
| 20260510051229 | 8 | 319 | 0.0 | 0.0 | 0.00 | 0.03 | 0.00 | 70 | 1010.0 |
| 20260510051152 | 8 | 319 | 0.0 | 0.0 | 0.00 | 0.03 | 0.00 | 70 | 1010.0 |
| 20260510051032 | 8 | 318 | 0.0 | 0.0 | 0.00 | 0.03 | 0.00 | 70 | 1010.0 |
| 20260510050935 | 8 | 318 | 0.0 | 0.0 | 0.00 | 0.03 | 0.00 | 70 | 1009.9 |
| 20260510050837 | 8 | 318 | 0.0 | 0.0 | 0.00 | 0.03 | 0.00 | 70 | 1010.0 |
| 20260510050740 | 8 | 318 | 0.0 | 0.0 | 0.00 | 0.03 | 0.00 | 70 | 1009.9 |
| 20260510050625 | 9 | 318 | 0.0 | 0.0 | 0.00 | 0.03 | 0.00 | 69 | 1009.9 |
| 20260510050528 | 9 | 318 | 0.0 | 0.0 | 0.00 | 0.03 | 0.00 | 69 | 1009.8 |
| 20260510050429 | 9 | 318 | 0.0 | 0.0 | 0.00 | 0.03 | 0.00 | 69 | 1009.9 |
| 20260510050331 | 9 | 318 | 0.0 | 0.0 | 0.00 | 0.03 | 0.00 | 69 | 1009.9 |
| 20260510050234 | 9 | 318 | 0.0 | 0.0 | 0.00 | 0.03 | 0.00 | 69 | 1009.8 |
| 20260510050136 | 9 | 318 | 0.0 | 0.0 | 0.00 | 0.03 | 0.00 | 69 | 1009.8 |
| 20260510050022 | 9 | 318 | 0.0 | 0.0 | 0.00 | 0.03 | 0.00 | 68 | 1009.7 |
| 20260510045925 | 9 | 318 | 0.0 | 0.0 | 0.00 | 0.03 | 0.00 | 68 | 1009.7 |
| 20260510045827 | 9 | 318 | 0.0 | 0.0 | 0.00 | 0.03 | 0.00 | 68 | 1009.7 |
| 20260510045730 | 9 | 318 | 0.0 | 0.0 | 0.00 | 0.03 | 0.00 | 68 | 1009.7 |
| 20260510045631 | 9 | 318 | 0.0 | 0.0 | 0.00 | 0.03 | 0.00 | 68 | 1009.7 |
| 20260510045534 | 9 | 318 | 0.0 | 0.0 | 0.00 | 0.03 | 0.00 | 68 | 1009.6 |
| 20260510045440 | 9 | 318 | 0.0 | 0.0 | 0.00 | 0.03 | 0.00 | 68 | 1009.6 |
| 20260510045322 | 9 | 318 | 0.0 | 0.0 | 0.00 | 0.03 | 0.00 | 67 | 1009.5 |
| 20260510045224 | 9 | 318 | 0.0 | 0.0 | 0.00 | 0.03 | 0.00 | 67 | 1009.6 |
| 20260510045127 | 9 | 318 | 0.0 | 0.0 | 0.00 | 0.03 | 0.00 | 67 | 1009.5 |
| 20260510045029 | 9 | 318 | 0.0 | 0.0 | 0.00 | 0.03 | 0.00 | 67 | 1009.5 |
| 20260510044951 | 9 | 318 | 0.0 | 0.0 | 0.00 | 0.03 | 0.00 | 67 | 1009.5 |
| 20260510044852 | 9 | 318 | 0.0 | 0.0 | 0.00 | 0.03 | 0.00 | 67 | 1009.5 |
| 20260510044738 | 9 | 318 | 0.0 | 0.0 | 0.00 | 0.03 | 0.00 | 67 | 1009.5 |
| 20260510044640 | 9 | 318 | 0.0 | 0.0 | 0.00 | 0.03 | 0.00 | 66 | 1009.5 |
| 20260510044521 | 10 | 318 | 0.0 | 0.0 | 0.00 | 0.03 | 0.00 | 66 | 1009.4 |
| 20260510044424 | 10 | 318 | 0.0 | 0.0 | 0.00 | 0.03 | 0.00 | 66 | 1009.5 |
| 20260510044326 | 10 | 318 | 0.0 | 0.0 | 0.00 | 0.03 | 0.00 | 66 | 1009.4 |
| 20260510044248 | 10 | 318 | 0.0 | 0.0 | 0.00 | 0.03 | 0.00 | 65 | 1009.4 |
| 20260510044129 | 10 | 318 | 0.0 | 0.0 | 0.00 | 0.03 | 0.00 | 65 | 1009.4 |
| 20260510044035 | 10 | 318 | 0.0 | 0.0 | 0.00 | 0.03 | 0.00 | 65 | 1009.4 |
| 20260510043938 | 10 | 318 | 0.0 | 0.0 | 0.00 | 0.03 | 0.00 | 65 | 1009.4 |
| 20260510043840 | 10 | 318 | 0.0 | 0.0 | 0.00 | 0.03 | 0.00 | 65 | 1009.4 |
| 20260510043743 | 10 | 318 | 0.0 | 0.0 | 0.00 | 0.03 | 0.00 | 65 | 1009.4 |
| 20260510043624 | 10 | 318 | 0.0 | 0.0 | 0.00 | 0.03 | 0.00 | 64 | 1009.4 |
| 20260510043527 | 10 | 318 | 0.0 | 0.0 | 0.00 | 0.03 | 0.00 | 64 | 1009.4 |
| 20260510043433 | 10 | 318 | 0.0 | 0.0 | 0.00 | 0.03 | 0.00 | 64 | 1009.4 |
| 20260510043355 | 10 | 318 | 0.0 | 0.0 | 0.00 | 0.03 | 0.00 | 64 | 1009.3 |
| 20260510043236 | 10 | 318 | 0.0 | 0.0 | 0.00 | 0.03 | 0.00 | 64 | 1009.4 |
| 20260510043138 | 10 | 318 | 0.0 | 0.0 | 0.00 | 0.03 | 0.00 | 63 | 1009.3 |
| 20260510043021 | 10 | 318 | 0.0 | 0.0 | 0.00 | 0.03 | 0.00 | 63 | 1009.4 |
| 20260510042923 | 10 | 318 | 0.0 | 0.0 | 0.00 | 0.03 | 0.00 | 63 | 1009.3 |
| 20260510042825 | 10 | 318 | 0.0 | 0.0 | 0.00 | 0.03 | 0.00 | 63 | 1009.3 |
| 20260510042731 | 11 | 318 | 0.0 | 0.0 | 0.00 | 0.03 | 0.00 | 63 | 1009.3 |
| 20260510042632 | 11 | 318 | 0.0 | 0.0 | 0.00 | 0.03 | 0.00 | 62 | 1009.3 |
| 20260510042534 | 11 | 318 | 0.0 | 0.0 | 0.00 | 0.03 | 0.00 | 62 | 1009.3 |
| 20260510042437 | 11 | 318 | 0.0 | 0.0 | 0.00 | 0.03 | 0.00 | 62 | 1009.3 |
| 20260510042339 | 11 | 318 | 0.0 | 0.0 | 0.00 | 0.03 | 0.00 | 62 | 1009.3 |
| 20260510042221 | 11 | 318 | 0.0 | 0.0 | 0.00 | 0.03 | 0.00 | 61 | 1009.2 |
| 20260510042144 | 11 | 318 | 0.0 | 0.0 | 0.00 | 0.03 | 0.00 | 61 | 1009.2 |
| 20260510042049 | 11 | 318 | 0.0 | 0.0 | 0.00 | 0.03 | 0.00 | 61 | 1009.2 |
| 20260510041930 | 11 | 318 | 0.0 | 0.0 | 0.00 | 0.03 | 0.00 | 61 | 1009.2 |
| 20260510041832 | 11 | 318 | 0.0 | 0.0 | 0.00 | 0.03 | 0.00 | 61 | 1009.2 |
| 20260510041734 | 11 | 318 | 0.0 | 0.0 | 0.00 | 0.03 | 0.00 | 61 | 1009.2 |
| 20260510041636 | 11 | 318 | 0.0 | 0.0 | 0.00 | 0.03 | 0.00 | 60 | 1009.2 |
| 20260510041559 | 11 | 318 | 0.0 | 0.0 | 0.00 | 0.03 | 0.00 | 60 | 1009.2 |
| 20260510041500 | 11 | 318 | 0.0 | 0.0 | 0.00 | 0.03 | 0.00 | 60 | 1009.1 |
| 20260510041401 | 11 | 318 | 0.0 | 0.0 | 0.00 | 0.03 | 0.00 | 60 | 1009.1 |
| 20260510041246 | 11 | 318 | 0.0 | 0.0 | 0.00 | 0.03 | 0.00 | 60 | 1009.1 |
| 20260510041128 | 11 | 318 | 0.0 | 0.0 | 0.00 | 0.03 | 0.00 | 59 | 1009.1 |
| 20260510041030 | 11 | 318 | 0.0 | 0.0 | 0.00 | 0.03 | 0.00 | 59 | 1009.1 |
| 20260510040951 | 11 | 318 | 0.0 | 0.0 | 0.00 | 0.03 | 0.00 | 59 | 1009.0 |
| 20260510040832 | 11 | 318 | 0.0 | 0.0 | 0.00 | 0.03 | 0.00 | 59 | 1009.0 |
| 20260510040755 | 11 | 318 | 0.0 | 0.0 | 0.00 | 0.03 | 0.00 | 58 | 1009.0 |
| 20260510040636 | 11 | 318 | 0.0 | 0.0 | 0.00 | 0.03 | 0.00 | 58 | 1009.0 |
| 20260510040523 | 11 | 318 | 0.0 | 0.0 | 0.00 | 0.03 | 0.00 | 57 | 1008.9 |
| 20260510040445 | 11 | 318 | 0.0 | 0.0 | 0.00 | 0.03 | 0.00 | 57 | 1008.9 |
| 20260510040327 | 11 | 318 | 0.0 | 0.0 | 0.00 | 0.03 | 0.00 | 57 | 1008.9 |
| 20260510040229 | 11 | 318 | 0.0 | 0.0 | 0.00 | 0.03 | 0.00 | 57 | 1008.9 |
| 20260510040131 | 11 | 318 | 0.0 | 0.0 | 0.00 | 0.03 | 0.00 | 57 | 1008.9 |
| 20260510040055 | 11 | 318 | 0.0 | 0.0 | 0.00 | 0.03 | 0.00 | 57 | 1008.8 |
| 20260510040017 | 11 | 318 | 0.0 | 0.0 | 0.00 | 0.03 | 0.00 | 57 | 1008.8 |
| 20260510035855 | 12 | 318 | 0.0 | 0.0 | 0.00 | 0.03 | 0.00 | 57 | 1008.8 |
| 20260510035737 | 12 | 318 | 0.0 | 0.0 | 0.00 | 0.03 | 0.00 | 57 | 1008.7 |
| 20260510035615 | 12 | 318 | 0.0 | 0.0 | 0.00 | 0.03 | 0.00 | 57 | 1008.8 |
| 20260510035453 | 12 | 318 | 0.0 | 0.0 | 0.00 | 0.03 | 0.00 | 58 | 1008.8 |
| 20260510035330 | 12 | 318 | 0.0 | 0.0 | 0.00 | 0.03 | 0.00 | 58 | 1008.8 |
| 20260510035212 | 12 | 318 | 0.0 | 0.0 | 0.00 | 0.03 | 0.00 | 58 | 1008.8 |
| 20260510035050 | 12 | 318 | 0.0 | 0.0 | 0.00 | 0.03 | 0.00 | 57 | 1008.8 |
| 20260510034928 | 12 | 318 | 0.0 | 0.0 | 0.00 | 0.03 | 0.00 | 57 | 1008.8 |
| 20260510034806 | 12 | 318 | 0.0 | 0.0 | 0.00 | 0.03 | 0.00 | 56 | 1008.8 |
| 20260510034647 | 12 | 318 | 0.0 | 0.0 | 0.00 | 0.03 | 0.00 | 56 | 1008.7 |
| 20260510034524 | 12 | 318 | 0.0 | 0.0 | 0.00 | 0.03 | 0.03 | 56 | 1008.7 |
| 20260510034341 | 12 | 318 | 0.0 | 0.0 | 0.00 | 0.03 | 0.03 | 56 | 1008.7 |
| 20260510034218 | 12 | 318 | 0.0 | 0.0 | 0.00 | 0.03 | 0.03 | 56 | 1008.6 |
| 20260510034056 | 12 | 318 | 0.0 | 0.0 | 0.00 | 0.03 | 0.03 | 56 | 1008.6 |
| 20260510033917 | 12 | 318 | 0.0 | 0.0 | 0.00 | 0.03 | 0.03 | 56 | 1008.6 |
| 20260510033733 | 12 | 318 | 0.0 | 0.0 | 0.00 | 0.03 | 0.03 | 56 | 1008.6 |
| 20260510033616 | 12 | 318 | 0.0 | 0.0 | 0.00 | 0.03 | 0.03 | 56 | 1008.6 |
| 20260510033453 | 12 | 318 | 0.0 | 0.0 | 0.00 | 0.03 | 0.03 | 55 | 1008.6 |
| 20260510033314 | 12 | 318 | 0.0 | 0.0 | 0.00 | 0.03 | 0.03 | 55 | 1008.6 |
| 20260510033151 | 12 | 318 | 0.0 | 0.0 | 0.00 | 0.03 | 0.03 | 55 | 1008.6 |
| 20260510033034 | 12 | 318 | 0.0 | 0.0 | 0.00 | 0.03 | 0.03 | 55 | 1008.5 |
| 20260510032912 | 12 | 318 | 0.0 | 1.6 | 0.00 | 0.03 | 0.03 | 55 | 1008.5 |
| 20260510032753 | 12 | 318 | 0.0 | 1.6 | 0.00 | 0.03 | 0.03 | 55 | 1008.5 |
| 20260510032636 | 12 | 318 | 0.0 | 1.6 | 0.00 | 0.03 | 0.03 | 55 | 1008.5 |
| 20260510032452 | 12 | 318 | 0.0 | 1.6 | 0.00 | 0.03 | 0.03 | 55 | 1008.5 |
| 20260510032330 | 12 | 318 | 0.0 | 1.6 | 0.00 | 0.03 | 0.03 | 54 | 1008.5 |
| 20260510032209 | 12 | 318 | 0.0 | 1.6 | 0.00 | 0.03 | 0.03 | 54 | 1008.4 |
| 20260510032050 | 12 | 318 | 0.0 | 1.6 | 0.00 | 0.03 | 0.03 | 54 | 1008.4 |
| 20260510031928 | 12 | 319 | 0.0 | 3.2 | 0.00 | 0.03 | 0.03 | 54 | 1008.4 |
| 20260510031806 | 12 | 319 | 0.0 | 3.2 | 0.00 | 0.03 | 0.03 | 54 | 1008.4 |
| 20260510031644 | 12 | 319 | 0.0 | 3.2 | 0.00 | 0.03 | 0.03 | 54 | 1008.4 |
| 20260510031526 | 12 | 319 | 0.0 | 4.8 | 0.00 | 0.03 | 0.03 | 54 | 1008.4 |
| 20260510031404 | 12 | 319 | 0.0 | 4.8 | 0.00 | 0.03 | 0.03 | 54 | 1008.4 |
| 20260510031242 | 12 | 319 | 0.0 | 6.4 | 0.00 | 0.03 | 0.03 | 54 | 1008.3 |
| 20260510031124 | 12 | 318 | 0.0 | 6.4 | 0.00 | 0.03 | 0.03 | 54 | 1008.3 |
| 20260510030950 | 12 | 321 | 1.6 | 6.4 | 0.00 | 0.03 | 0.03 | 53 | 1008.3 |
| 20260510030828 | 12 | 317 | 3.2 | 6.4 | 0.00 | 0.03 | 0.03 | 53 | 1008.3 |
| 20260510030706 | 12 | 321 | 3.2 | 6.4 | 0.00 | 0.03 | 0.03 | 53 | 1008.2 |
| 20260510030544 | 12 | 322 | 1.6 | 6.4 | 0.00 | 0.03 | 0.03 | 53 | 1008.2 |
| 20260510030426 | 12 | 303 | 1.6 | 6.4 | 0.00 | 0.03 | 0.03 | 53 | 1008.2 |
| 20260510030304 | 12 | 318 | 0.0 | 6.4 | 0.00 | 0.03 | 0.03 | 53 | 1008.2 |
| 20260510030143 | 12 | 331 | 0.0 | 6.4 | 0.00 | 0.03 | 0.03 | 53 | 1008.2 |
| 20260510030000 | 12 | 331 | 1.6 | 6.4 | 0.00 | 0.03 | 0.03 | 52 | 1008.1 |
| 20260510025837 | 13 | 325 | 0.0 | 4.8 | 0.00 | 0.03 | 0.03 | 52 | 1008.1 |
| 20260510025719 | 13 | 326 | 1.6 | 6.4 | 0.00 | 0.03 | 0.03 | 52 | 1008.1 |
| 20260510025536 | 13 | 321 | 1.6 | 6.4 | 0.00 | 0.03 | 0.03 | 52 | 1008.1 |
| 20260510025413 | 13 | 321 | 1.6 | 6.4 | 0.00 | 0.03 | 0.03 | 52 | 1008.2 |
| 20260510025230 | 13 | 321 | 1.6 | 6.4 | 0.00 | 0.03 | 0.03 | 52 | 1008.1 |
| 20260510025112 | 13 | 323 | 3.2 | 6.4 | 0.00 | 0.03 | 0.03 | 52 | 1008.1 |
| 20260510024954 | 13 | 309 | 1.6 | 4.8 | 0.00 | 0.03 | 0.03 | 52 | 1008.1 |
| 20260510024812 | 13 | 314 | 1.6 | 6.4 | 0.00 | 0.03 | 0.03 | 51 | 1008.0 |
| 20260510024628 | 13 | 313 | 1.6 | 6.4 | 0.00 | 0.03 | 0.03 | 51 | 1008.0 |
| 20260510024509 | 13 | 325 | 1.6 | 6.4 | 0.00 | 0.03 | 0.03 | 51 | 1008.0 |
| 20260510024325 | 13 | 321 | 1.6 | 8.0 | 0.00 | 0.03 | 0.03 | 51 | 1008.0 |
| 20260510024203 | 13 | 323 | 1.6 | 11.3 | 0.00 | 0.03 | 0.03 | 51 | 1008.0 |
| 20260510024041 | 13 | 323 | 3.2 | 11.3 | 0.00 | 0.03 | 0.03 | 51 | 1008.0 |
| 20260510023923 | 13 | 323 | 3.2 | 11.3 | 0.00 | 0.03 | 0.03 | 50 | 1007.9 |
| 20260510023805 | 13 | 304 | 3.2 | 11.3 | 0.00 | 0.03 | 0.03 | 50 | 1007.9 |
| 20260510023643 | 13 | 315 | 3.2 | 11.3 | 0.00 | 0.03 | 0.03 | 50 | 1008.0 |
| 20260510023525 | 13 | 319 | 6.4 | 11.3 | 0.00 | 0.03 | 0.03 | 50 | 1007.9 |
| 20260510023403 | 13 | 301 | 6.4 | 11.3 | 0.00 | 0.03 | 0.03 | 50 | 1007.9 |
| 20260510023245 | 13 | 296 | 4.8 | 12.9 | 0.00 | 0.03 | 0.03 | 50 | 1007.9 |
| 20260510023122 | 13 | 307 | 6.4 | 14.5 | 0.00 | 0.03 | 0.03 | 50 | 1007.9 |
| 20260510023000 | 13 | 312 | 6.4 | 16.1 | 0.00 | 0.03 | 0.03 | 50 | 1007.8 |
| 20260510022840 | 13 | 298 | 6.4 | 16.1 | 0.00 | 0.03 | 0.03 | 50 | 1007.7 |
| 20260510022722 | 13 | 333 | 6.4 | 16.1 | 0.00 | 0.03 | 0.03 | 50 | 1007.6 |
| 20260510022559 | 13 | 300 | 6.4 | 16.1 | 0.00 | 0.03 | 0.03 | 50 | 1007.6 |
| 20260510022415 | 13 | 300 | 8.0 | 16.1 | 0.00 | 0.03 | 0.03 | 50 | 1007.6 |
| 20260510022253 | 13 | 317 | 9.7 | 16.1 | 0.00 | 0.03 | 0.03 | 50 | 1007.6 |
| 20260510022129 | 13 | 297 | 6.4 | 14.5 | 0.00 | 0.03 | 0.03 | 50 | 1007.4 |
| 20260510022010 | 13 | 329 | 8.0 | 14.5 | 0.00 | 0.03 | 0.03 | 49 | 1007.4 |
| 20260510021848 | 13 | 313 | 6.4 | 12.9 | 0.00 | 0.03 | 0.03 | 49 | 1007.4 |
| 20260510021726 | 13 | 344 | 4.8 | 12.9 | 0.00 | 0.03 | 0.03 | 49 | 1007.4 |
| 20260510021607 | 13 | 313 | 6.4 | 12.9 | 0.00 | 0.03 | 0.03 | 49 | 1007.4 |
| 20260510021433 | 13 | 338 | 4.8 | 12.9 | 0.00 | 0.03 | 0.03 | 49 | 1007.4 |
| 20260510021310 | 13 | 15 | 4.8 | 12.9 | 0.00 | 0.03 | 0.03 | 49 | 1007.4 |
| 20260510021126 | 13 | 5 | 6.4 | 12.9 | 0.00 | 0.03 | 0.03 | 48 | 1007.3 |
| 20260510021004 | 13 | 348 | 6.4 | 11.3 | 0.00 | 0.03 | 0.03 | 48 | 1007.3 |
| 20260510020846 | 13 | 349 | 4.8 | 8.0 | 0.00 | 0.03 | 0.03 | 49 | 1007.3 |
| 20260510020703 | 14 | 342 | 3.2 | 11.3 | 0.00 | 0.03 | 0.03 | 48 | 1007.2 |
| 20260510020541 | 14 | 333 | 3.2 | 12.9 | 0.00 | 0.03 | 0.03 | 48 | 1007.2 |
| 20260510020417 | 14 | 336 | 3.2 | 12.9 | 0.00 | 0.03 | 0.03 | 48 | 1007.1 |
| 20260510020243 | 14 | 340 | 4.8 | 12.9 | 0.00 | 0.03 | 0.03 | 48 | 1007.0 |
| 20260510020100 | 14 | 343 | 4.8 | 12.9 | 0.00 | 0.03 | 0.03 | 48 | 1007.0 |
| 20260510015937 | 14 | 355 | 6.4 | 14.5 | 0.00 | 0.03 | 0.03 | 47 | 1007.0 |
| 20260510015756 | 14 | 360 | 6.4 | 14.5 | 0.00 | 0.03 | 0.03 | 47 | 1007.0 |
| 20260510015622 | 14 | 346 | 8.0 | 14.5 | 0.00 | 0.03 | 0.03 | 47 | 1006.9 |
| 20260510015500 | 14 | 271 | 4.8 | 19.3 | 0.00 | 0.03 | 0.03 | 47 | 1007.0 |
| 20260510015337 | 14 | 348 | 6.4 | 19.3 | 0.00 | 0.03 | 0.03 | 47 | 1006.9 |
| 20260510015214 | 15 | 330 | 6.4 | 20.9 | 0.00 | 0.03 | 0.03 | 47 | 1006.9 |
| 20260510015040 | 15 | 335 | 8.0 | 20.9 | 0.00 | 0.03 | 0.03 | 47 | 1006.9 |
| 20260510014857 | 15 | 336 | 6.4 | 20.9 | 0.00 | 0.03 | 0.03 | 46 | 1006.9 |
| 20260510014734 | 15 | 289 | 11.3 | 20.9 | 0.00 | 0.03 | 0.03 | 46 | 1006.9 |
| 20260510014556 | 15 | 301 | 11.3 | 20.9 | 0.00 | 0.03 | 0.03 | 45 | 1006.8 |
| 20260510014422 | 15 | 22 | 12.9 | 20.9 | 0.00 | 0.03 | 0.03 | 46 | 1006.7 |
| 20260510014301 | 15 | 9 | 12.9 | 19.3 | 0.00 | 0.03 | 0.03 | 45 | 1006.7 |
| 20260510014118 | 15 | 11 | 9.7 | 17.7 | 0.00 | 0.03 | 0.03 | 46 | 1006.6 |
| 20260510013937 | 15 | 312 | 8.0 | 17.7 | 0.00 | 0.03 | 0.03 | 46 | 1006.5 |
| 20260510013758 | 15 | 339 | 9.7 | 24.1 | 0.00 | 0.03 | 0.03 | 45 | 1006.4 |
| 20260510013635 | 15 | 331 | 8.0 | 24.1 | 0.00 | 0.03 | 0.03 | 46 | 1006.4 |
| 20260510013512 | 15 | 300 | 8.0 | 24.1 | 0.00 | 0.03 | 0.03 | 46 | 1006.3 |
| 20260510013333 | 15 | 360 | 6.4 | 24.1 | 0.00 | 0.03 | 0.03 | 46 | 1006.2 |
| 20260510013211 | 15 | 343 | 8.0 | 24.1 | 0.00 | 0.03 | 0.03 | 45 | 1006.2 |
| 20260510013052 | 15 | 304 | 11.3 | 24.1 | 0.00 | 0.03 | 0.03 | 45 | 1006.2 |
| 20260510012935 | 15 | 346 | 11.3 | 24.1 | 0.00 | 0.03 | 0.03 | 46 | 1006.1 |
| 20260510012812 | 15 | 316 | 8.0 | 24.1 | 0.00 | 0.03 | 0.03 | 46 | 1006.0 |
| 20260510012651 | 15 | 271 | 12.9 | 24.1 | 0.00 | 0.03 | 0.03 | 46 | 1005.9 |
| 20260510012512 | 15 | 329 | 12.9 | 24.1 | 0.00 | 0.03 | 0.03 | 47 | 1005.9 |
| 20260510012348 | 16 | 333 | 9.7 | 24.1 | 0.00 | 0.03 | 0.03 | 48 | 1005.9 |
| 20260510012226 | 16 | 327 | 6.4 | 17.7 | 0.00 | 0.03 | 0.03 | 47 | 1005.8 |
| 20260510012108 | 16 | 360 | 6.4 | 17.7 | 0.00 | 0.03 | 0.03 | 47 | 1005.8 |
| 20260510011949 | 16 | 360 | 8.0 | 17.7 | 0.00 | 0.03 | 0.03 | 47 | 1005.7 |
| 20260510011810 | 16 | 292 | 9.7 | 17.7 | 0.00 | 0.03 | 0.03 | 47 | 1005.6 |
| 20260510011648 | 16 | 304 | 9.7 | 17.7 | 0.00 | 0.03 | 0.03 | 48 | 1005.6 |
| 20260510011505 | 16 | 343 | 8.0 | 17.7 | 0.00 | 0.03 | 0.03 | 47 | 1005.5 |
| 20260510011330 | 16 | 360 | 8.0 | 17.7 | 0.00 | 0.03 | 0.03 | 48 | 1005.5 |
| 20260510011211 | 16 | 329 | 8.0 | 22.5 | 0.00 | 0.03 | 0.03 | 48 | 1005.4 |
| 20260510011007 | 16 | 313 | 8.0 | 22.5 | 0.00 | 0.03 | 0.03 | 47 | 1005.4 |
| 20260510010843 | 16 | 327 | 8.0 | 22.5 | 0.00 | 0.03 | 0.03 | 47 | 1005.3 |
| 20260510010723 | 16 | 338 | 8.0 | 22.5 | 0.00 | 0.03 | 0.03 | 47 | 1005.3 |
| 20260510010605 | 16 | 298 | 9.7 | 22.5 | 0.00 | 0.03 | 0.03 | 47 | 1005.1 |
| 20260510010422 | 16 | 281 | 8.0 | 19.3 | 0.00 | 0.03 | 0.03 | 47 | 1005.1 |
| 20260510010300 | 16 | 298 | 8.0 | 19.3 | 0.00 | 0.03 | 0.03 | 47 | 1005.0 |
| 20260510010117 | 16 | 322 | 8.0 | 19.3 | 0.00 | 0.03 | 0.03 | 47 | 1005.0 |
| 20260510005936 | 16 | 343 | 9.7 | 27.4 | 0.00 | 0.03 | 0.03 | 47 | 1005.0 |
| 20260510005813 | 16 | 306 | 9.7 | 27.4 | 0.00 | 0.03 | 0.03 | 47 | 1004.9 |
| 20260510005649 | 16 | 302 | 9.7 | 27.4 | 0.00 | 0.03 | 0.03 | 47 | 1004.9 |
| 20260510005527 | 16 | 294 | 8.0 | 27.4 | 0.00 | 0.03 | 0.03 | 47 | 1004.7 |
| 20260510005408 | 16 | 290 | 9.7 | 27.4 | 0.00 | 0.03 | 0.03 | 47 | 1004.8 |
| 20260510005246 | 16 | 301 | 14.5 | 27.4 | 0.00 | 0.03 | 0.03 | 47 | 1004.7 |
| 20260510005123 | 16 | 290 | 11.3 | 17.7 | 0.00 | 0.03 | 0.03 | 47 | 1004.7 |
| 20260510005001 | 16 | 10 | 8.0 | 16.1 | 0.00 | 0.03 | 0.03 | 47 | 1004.6 |
| 20260510004820 | 16 | 297 | 9.7 | 16.1 | 0.00 | 0.03 | 0.03 | 47 | 1004.7 |
| 20260510004701 | 16 | 283 | 9.7 | 17.7 | 0.00 | 0.03 | 0.03 | 48 | 1004.6 |
| 20260510004540 | 16 | 330 | 11.3 | 17.7 | 0.00 | 0.03 | 0.03 | 47 | 1004.6 |
| 20260510004420 | 16 | 292 | 9.7 | 17.7 | 0.00 | 0.03 | 0.03 | 48 | 1004.6 |
| 20260510004258 | 17 | 288 | 9.7 | 17.7 | 0.00 | 0.03 | 0.03 | 48 | 1004.5 |
| 20260510004139 | 17 | 331 | 9.7 | 17.7 | 0.00 | 0.03 | 0.03 | 48 | 1004.5 |
| 20260510004017 | 17 | 346 | 6.4 | 17.7 | 0.00 | 0.03 | 0.03 | 48 | 1004.4 |
| 20260510003855 | 17 | 355 | 6.4 | 16.1 | 0.00 | 0.03 | 0.03 | 48 | 1004.4 |
| 20260510003732 | 17 | 328 | 9.7 | 19.3 | 0.00 | 0.03 | 0.03 | 48 | 1004.4 |
| 20260510003614 | 17 | 332 | 6.4 | 20.9 | 0.00 | 0.03 | 0.03 | 49 | 1004.3 |
| 20260510003452 | 17 | 319 | 6.4 | 24.1 | 0.00 | 0.03 | 0.03 | 48 | 1004.3 |
| 20260510003329 | 17 | 314 | 8.0 | 24.1 | 0.00 | 0.03 | 0.03 | 48 | 1004.3 |
| 20260510003149 | 17 | 297 | 9.7 | 24.1 | 0.00 | 0.03 | 0.03 | 48 | 1004.2 |
| 20260510003005 | 17 | 314 | 9.7 | 24.1 | 0.00 | 0.03 | 0.03 | 48 | 1004.2 |
| 20260510002847 | 17 | 350 | 12.9 | 24.1 | 0.00 | 0.03 | 0.03 | 47 | 1004.1 |
| 20260510002725 | 17 | 346 | 12.9 | 24.1 | 0.00 | 0.03 | 0.03 | 48 | 1004.1 |
| 20260510002602 | 17 | 320 | 9.7 | 17.7 | 0.00 | 0.03 | 0.03 | 48 | 1004.1 |
| 20260510002440 | 17 | 322 | 9.7 | 17.7 | 0.00 | 0.03 | 0.03 | 48 | 1004.0 |
| 20260510002301 | 17 | 306 | 8.0 | 16.1 | 0.00 | 0.03 | 0.03 | 48 | 1004.0 |
| 20260510002141 | 17 | 300 | 6.4 | 16.1 | 0.00 | 0.03 | 0.03 | 48 | 1004.0 |
| 20260510002019 | 17 | 325 | 9.7 | 16.1 | 0.00 | 0.03 | 0.03 | 47 | 1003.9 |
| 20260510001835 | 17 | 302 | 4.8 | 9.7 | 0.00 | 0.03 | 0.03 | 47 | 1003.9 |
| 20260510001716 | 17 | 287 | 6.4 | 9.7 | 0.00 | 0.03 | 0.03 | 47 | 1003.8 |
| 20260510001554 | 17 | 313 | 4.8 | 9.7 | 0.00 | 0.03 | 0.03 | 47 | 1003.8 |
| 20260510001432 | 17 | 296 | 4.8 | 9.7 | 0.00 | 0.03 | 0.03 | 48 | 1003.8 |
| 20260510001310 | 17 | 338 | 4.8 | 9.7 | 0.00 | 0.03 | 0.03 | 48 | 1003.7 |
| 20260510001148 | 17 | 346 | 6.4 | 9.7 | 0.00 | 0.03 | 0.03 | 47 | 1003.7 |
| 20260510001029 | 17 | 327 | 3.2 | 9.7 | 0.00 | 0.03 | 0.03 | 48 | 1003.7 |
| 20260510000846 | 17 | 321 | 4.8 | 9.7 | 0.00 | 0.03 | 0.03 | 47 | 1003.7 |
| 20260510000723 | 17 | 333 | 4.8 | 9.7 | 0.00 | 0.03 | 0.03 | 47 | 1003.7 |
| 20260510000600 | 17 | 292 | 4.8 | 9.7 | 0.00 | 0.03 | 0.03 | 47 | 1003.7 |
| 20260510000442 | 18 | 311 | 6.4 | 9.7 | 0.00 | 0.03 | 0.03 | 46 | 1003.7 |
| 20260510000258 | 18 | 293 | 3.2 | 8.0 | 0.00 | 0.03 | 0.03 | 47 | 1003.7 |
| 20260510000115 | 18 | 298 | 3.2 | 11.3 | 0.00 | 0.03 | 0.03 | 46 | 1003.7 |
| 20260509235936 | 18 | 298 | 3.2 | 12.9 | 0.00 | 0.03 | 0.03 | 46 | 1003.7 |
| 20260509235818 | 18 | 311 | 3.2 | 12.9 | 0.00 | 0.03 | 0.03 | 46 | 1003.7 |
| 20260509235655 | 18 | 292 | 3.2 | 12.9 | 0.00 | 0.03 | 0.03 | 46 | 1003.6 |
| 20260509235532 | 18 | 317 | 4.8 | 16.1 | 0.00 | 0.03 | 0.03 | 45 | 1003.6 |
| 20260509235415 | 18 | 288 | 8.0 | 20.9 | 0.00 | 0.03 | 0.03 | 45 | 1003.6 |
| 20260509235231 | 18 | 323 | 8.0 | 20.9 | 0.00 | 0.03 | 0.03 | 45 | 1003.6 |
| 20260509235112 | 18 | 303 | 4.8 | 20.9 | 0.00 | 0.03 | 0.03 | 45 | 1003.6 |
| 20260509234949 | 18 | 323 | 4.8 | 20.9 | 0.00 | 0.03 | 0.03 | 45 | 1003.5 |
| 20260509234826 | 18 | 298 | 9.7 | 20.9 | 0.00 | 0.03 | 0.03 | 45 | 1003.5 |
| 20260509234704 | 18 | 317 | 11.3 | 20.9 | 0.00 | 0.03 | 0.03 | 44 | 1003.5 |
| 20260509234545 | 18 | 310 | 6.4 | 16.1 | 0.00 | 0.03 | 0.03 | 45 | 1003.5 |
| 20260509234421 | 18 | 246 | 8.0 | 20.9 | 0.00 | 0.03 | 0.03 | 45 | 1003.5 |
| 20260509234259 | 18 | 295 | 11.3 | 20.9 | 0.00 | 0.03 | 0.03 | 44 | 1003.5 |
| 20260509234137 | 18 | 284 | 11.3 | 20.9 | 0.00 | 0.03 | 0.03 | 44 | 1003.4 |
| 20260509234019 | 18 | 325 | 8.0 | 20.9 | 0.00 | 0.03 | 0.03 | 44 | 1003.4 |
| 20260509233836 | 18 | 248 | 8.0 | 20.9 | 0.00 | 0.03 | 0.03 | 44 | 1003.4 |
| 20260509233712 | 18 | 306 | 11.3 | 20.9 | 0.00 | 0.03 | 0.03 | 44 | 1003.4 |
| 20260509233550 | 18 | 289 | 6.4 | 20.9 | 0.00 | 0.03 | 0.03 | 44 | 1003.4 |
| 20260509233428 | 18 | 275 | 6.4 | 22.5 | 0.00 | 0.03 | 0.03 | 44 | 1003.4 |
| 20260509233248 | 18 | 281 | 9.7 | 22.5 | 0.00 | 0.03 | 0.03 | 43 | 1003.4 |
| 20260509233131 | 18 | 250 | 9.7 | 22.5 | 0.00 | 0.03 | 0.03 | 43 | 1003.3 |
| 20260509233006 | 18 | 277 | 9.7 | 22.5 | 0.00 | 0.03 | 0.03 | 43 | 1003.3 |
| 20260509232846 | 18 | 246 | 9.7 | 22.5 | 0.00 | 0.03 | 0.03 | 43 | 1003.3 |
| 20260509232712 | 18 | 296 | 14.5 | 22.5 | 0.00 | 0.03 | 0.03 | 43 | 1003.3 |
| 20260509232550 | 18 | 257 | 12.9 | 22.5 | 0.00 | 0.03 | 0.03 | 43 | 1003.3 |
| 20260509232428 | 18 | 279 | 9.7 | 17.7 | 0.00 | 0.03 | 0.03 | 43 | 1003.3 |
| 20260509232310 | 18 | 249 | 8.0 | 17.7 | 0.00 | 0.03 | 0.03 | 44 | 1003.3 |
| 20260509232152 | 18 | 302 | 8.0 | 19.3 | 0.00 | 0.03 | 0.03 | 43 | 1003.3 |
| 20260509232033 | 18 | 302 | 9.7 | 19.3 | 0.00 | 0.03 | 0.03 | 43 | 1003.3 |
| 20260509231911 | 18 | 270 | 8.0 | 19.3 | 0.00 | 0.03 | 0.03 | 43 | 1003.3 |
| 20260509231748 | 18 | 302 | 9.7 | 19.3 | 0.00 | 0.03 | 0.03 | 43 | 1003.3 |
| 20260509231629 | 18 | 296 | 11.3 | 24.1 | 0.00 | 0.03 | 0.03 | 43 | 1003.3 |
| 20260509231507 | 18 | 290 | 11.3 | 24.1 | 0.00 | 0.03 | 0.03 | 43 | 1003.2 |
| 20260509231324 | 18 | 324 | 11.3 | 24.1 | 0.00 | 0.03 | 0.03 | 43 | 1003.3 |
| 20260509231202 | 18 | 269 | 6.4 | 24.1 | 0.00 | 0.03 | 0.03 | 43 | 1003.3 |
| 20260509231018 | 18 | 277 | 9.7 | 24.1 | 0.00 | 0.03 | 0.03 | 43 | 1003.3 |
| 20260509230900 | 18 | 289 | 12.9 | 24.1 | 0.00 | 0.03 | 0.03 | 43 | 1003.3 |
| 20260509230716 | 18 | 305 | 8.0 | 22.5 | 0.00 | 0.03 | 0.03 | 43 | 1003.3 |
| 20260509230554 | 18 | 286 | 9.7 | 22.5 | 0.00 | 0.03 | 0.03 | 42 | 1003.2 |
| 20260509230433 | 18 | 283 | 14.5 | 24.1 | 0.00 | 0.03 | 0.03 | 42 | 1003.3 |
| 20260509230253 | 18 | 295 | 11.3 | 24.1 | 0.00 | 0.03 | 0.03 | 42 | 1003.3 |
| 20260509230131 | 18 | 273 | 12.9 | 24.1 | 0.00 | 0.03 | 0.03 | 42 | 1003.3 |
| 20260509230013 | 18 | 290 | 14.5 | 24.1 | 0.00 | 0.03 | 0.03 | 42 | 1003.3 |
| 20260509225850 | 18 | 288 | 12.9 | 25.7 | 0.00 | 0.03 | 0.03 | 42 | 1003.3 |